GEFSMW_prec_meanprecacc_210.txt.gz
Total_Precipitation_Accumulation
1.86 2.24 2.60 3.04 3.48 3.99 4.73 5.34 5.75 5.72 5.51 5.12 4.73 4.42 3.95 3.65 3.38 3.09 2.88 2.65 2.37 2.26 2.54 2.34 2.60 2.51 2.36 2.19 2.19 2.30 2.33 2.07 2.30 2.51 2.03 1.54 1.29 1.20 1.07 1.07 1.16 1.09 1.18
1.81 2.16 2.66 2.95 3.29 3.81 4.36 4.78 4.76 4.42 4.29 4.26 4.15 3.87 3.88 3.74 3.60 3.34 3.10 2.69 2.50 2.35 2.19 2.32 2.19 2.15 2.22 2.03 1.93 2.12 2.12 1.89 2.21 2.31 2.26 1.72 1.49 1.24 0.86 0.98 1.09 1.16 1.37
1.46 1.79 2.34 2.64 2.82 3.25 3.59 3.64 3.51 3.34 3.38 3.43 3.39 3.47 3.68 3.69 3.62 3.46 3.16 2.85 2.69 2.58 2.43 2.31 2.12 2.05 1.91 1.93 1.95 2.02 2.04 1.95 1.95 2.02 2.18 1.79 1.45 1.25 0.92 0.91 1.08 1.34 1.54
1.22 1.50 1.84 2.05 2.30 2.49 2.64 2.64 2.71 2.74 2.75 2.77 2.76 2.68 2.71 2.89 3.10 3.32 3.34 3.27 3.04 2.79 2.52 2.32 2.13 1.94 1.79 1.93 1.66 1.75 2.01 2.07 1.81 1.83 1.80 1.69 1.77 1.72 1.37 1.02 0.94 1.20 1.38
1.25 1.44 1.53 1.67 1.76 1.78 1.90 1.96 2.25 2.57 2.66 2.69 2.78 2.69 2.43 2.41 2.47 2.61 2.75 2.74 2.72 2.56 2.26 2.16 2.11 1.94 1.77 1.75 1.71 1.94 1.94 1.90 1.81 1.86 1.84 1.92 2.02 1.87 1.74 1.44 1.32 1.37 1.30
0.96 1.17 1.41 1.47 1.41 1.39 1.56 1.76 2.06 2.45 2.66 2.69 2.66 2.63 2.54 2.50 2.41 2.39 2.42 2.30 2.29 2.23 2.09 2.01 2.04 1.89 1.76 1.73 1.71 1.83 1.89 1.96 2.01 2.00 1.94 1.98 1.95 1.95 2.12 1.87 1.70 1.65 1.42
0.72 0.73 0.91 1.14 1.10 1.06 1.21 1.48 1.68 1.97 2.18 2.27 2.27 2.21 2.32 2.42 2.30 2.15 2.07 1.99 1.86 1.78 1.80 1.88 1.95 1.80 1.73 1.79 1.91 1.87 1.82 1.91 2.01 1.94 1.97 2.02 1.95 2.06 2.22 2.18 1.93 1.78 1.60
0.52 0.50 0.57 0.71 0.92 0.92 0.96 1.09 1.33 1.51 1.70 1.80 1.92 2.03 2.20 2.29 2.24 2.38 2.19 2.03 1.74 1.62 1.67 1.85 1.91 1.81 1.73 1.70 1.97 1.97 1.96 2.03 2.01 1.88 2.10 2.13 1.96 2.15 2.38 2.47 2.47 2.22 2.07
0.40 0.41 0.49 0.67 0.68 0.67 0.72 0.84 1.05 1.20 1.37 1.54 1.72 1.79 1.76 1.78 1.91 2.10 2.12 1.97 1.87 1.69 1.76 1.82 1.97 2.02 2.05 2.06 2.18 2.10 2.10 2.25 2.23 2.17 2.29 2.30 2.18 2.20 2.33 2.54 2.71 2.74 2.57
0.38 0.39 0.43 0.50 0.50 0.49 0.63 0.85 1.00 1.01 1.25 1.56 1.74 1.65 1.62 1.53 1.67 1.76 1.81 1.86 1.81 1.80 1.83 1.83 1.89 1.98 2.06 2.10 2.23 2.21 2.28 2.45 2.47 2.52 2.61 2.50 2.27 2.32 2.39 2.52 2.75 2.97 3.00
0.44 0.44 0.43 0.43 0.54 0.49 0.58 0.73 0.84 0.97 1.24 1.56 1.76 1.75 1.60 1.59 1.71 1.64 1.62 1.75 1.79 1.78 1.82 1.82 1.78 1.75 1.87 2.07 2.25 2.25 2.39 2.51 2.56 2.55 2.47 2.37 2.41 2.52 2.45 2.55 2.68 2.87 3.07
0.37 0.35 0.32 0.37 0.37 0.37 0.50 0.79 1.10 1.44 1.59 1.84 2.07 2.06 1.78 1.61 1.54 1.42 1.44 1.64 1.83 1.85 1.82 1.79 1.76 1.71 1.79 2.05 2.23 2.34 2.60 2.73 2.63 2.53 2.49 2.38 2.47 2.57 2.51 2.55 2.53 2.59 2.85
0.39 0.38 0.34 0.41 0.38 0.37 0.41 0.55 0.70 1.03 1.34 1.65 1.90 1.84 1.61 1.45 1.41 1.41 1.47 1.63 1.77 1.78 1.74 1.75 1.79 1.90 2.00 2.20 2.35 2.46 2.66 2.63 2.52 2.52 2.42 2.30 2.34 2.32 2.37 2.41 2.37 2.32 2.40
0.49 0.44 0.41 0.38 0.38 0.40 0.37 0.45 0.52 0.61 0.81 1.20 1.47 1.49 1.36 1.31 1.34 1.40 1.42 1.42 1.46 1.52 1.58 1.77 2.00 2.17 2.30 2.39 2.44 2.45 2.43 2.43 2.34 2.23 2.12 2.10 2.17 2.24 2.25 2.18 2.16 2.20 2.29
0.49 0.46 0.45 0.47 0.49 0.52 0.47 0.45 0.50 0.54 0.70 1.09 1.31 1.29 1.26 1.27 1.24 1.24 1.32 1.38 1.44 1.49 1.71 1.89 2.00 2.05 2.11 2.18 2.30 2.30 2.24 2.19 2.10 1.98 1.79 1.79 2.05 2.17 2.14 1.98 2.05 2.15 2.24
0.47 0.44 0.38 0.47 0.53 0.55 0.54 0.51 0.52 0.57 0.71 0.98 1.21 1.21 1.20 1.18 1.12 1.15 1.25 1.42 1.51 1.66 1.84 1.89 1.87 1.84 1.61 1.71 1.82 1.86 1.87 1.87 1.82 1.71 1.63 1.64 1.73 1.74 1.76 1.74 1.74 1.80 1.90
0.45 0.40 0.43 0.54 0.72 0.65 0.62 0.66 0.61 0.62 0.75 0.97 1.15 1.24 1.22 1.23 1.21 1.19 1.35 1.55 1.70 1.84 1.95 1.94 1.89 1.79 1.72 1.62 1.50 1.49 1.53 1.64 1.65 1.66 1.68 1.46 1.35 1.48 1.51 1.60 1.56 1.51 1.59
0.55 0.55 0.52 0.57 0.64 0.62 0.64 0.69 0.69 0.70 0.81 1.02 1.24 1.33 1.27 1.32 1.40 1.41 1.50 1.72 1.93 2.07 2.08 2.03 1.95 1.91 1.85 1.75 1.53 1.48 1.43 1.55 1.58 1.56 1.57 1.56 1.48 1.47 1.56 1.62 1.56 1.43 1.38
0.65 0.65 0.69 0.67 0.74 0.78 0.77 0.76 0.83 0.88 0.97 1.07 1.24 1.36 1.41 1.50 1.53 1.57 1.75 1.96 2.14 2.18 2.14 2.17 2.10 2.04 2.07 1.91 1.56 1.40 1.38 1.55 1.58 1.57 1.54 1.52 1.47 1.51 1.39 1.36 1.38 1.36 1.32
0.78 0.73 0.77 0.82 0.85 0.90 0.95 0.95 1.02 1.15 1.30 1.39 1.47 1.64 1.82 1.98 2.06 2.11 2.19 2.24 2.31 2.22 2.19 2.18 2.18 2.12 2.12 2.02 1.53 1.30 1.30 1.50 1.54 1.61 1.58 1.49 1.36 1.33 1.20 1.19 1.32 1.30 1.28
0.71 0.75 0.76 0.85 0.93 0.94 1.05 1.20 1.29 1.40 1.53 1.68 1.76 1.95 2.25 2.42 2.42 2.43 2.38 2.30 2.30 2.32 2.30 2.21 2.19 2.15 2.08 1.99 1.58 1.39 1.41 1.55 1.64 1.64 1.60 1.54 1.40 1.20 1.14 1.09 1.13 1.18 1.16
0.65 0.71 0.75 0.81 0.96 1.15 1.31 1.56 1.67 1.62 1.72 1.91 2.06 2.25 2.48 2.43 2.36 2.54 2.48 2.44 2.51 2.50 2.37 2.27 2.18 2.20 2.16 1.98 1.67 1.42 1.47 1.61 1.73 1.80 1.75 1.65 1.44 1.19 1.09 1.01 0.99 0.96 0.89
0.65 0.69 0.75 0.87 0.99 1.21 1.57 1.83 1.88 1.93 1.98 2.09 2.19 2.25 2.35 2.53 2.70 2.77 2.67 2.59 2.59 2.52 2.33 2.22 2.08 2.01 2.07 2.10 1.68 1.40 1.45 1.54 1.58 1.75 1.78 1.53 1.30 1.14 0.98 0.94 0.93 0.82 0.76
0.70 0.73 0.80 0.96 1.15 1.33 1.65 1.81 1.84 1.89 1.95 1.98 1.96 2.04 2.19 2.34 2.44 2.67 2.73 2.65 2.53 2.46 2.39 2.29 2.13 2.03 2.04 2.04 1.71 1.39 1.37 1.43 1.43 1.51 1.58 1.44 1.27 1.13 1.00 0.94 0.89 0.83 0.84
0.73 0.80 0.87 0.97 1.10 1.27 1.47 1.57 1.73 1.81 1.91 1.93 1.88 1.88 1.90 2.01 2.10 2.20 2.31 2.29 2.28 2.10 2.00 1.92 1.85 1.83 1.86 1.82 1.56 1.37 1.36 1.47 1.52 1.47 1.49 1.50 1.37 1.24 1.13 1.10 1.12 1.12 1.07
0.69 0.80 0.90 1.00 1.09 1.25 1.45 1.54 1.67 1.76 1.81 1.79 1.73 1.75 1.76 1.83 1.87 1.88 1.81 1.65 1.58 1.43 1.29 1.25 1.20 1.22 1.27 1.37 1.22 1.09 1.17 1.32 1.37 1.30 1.33 1.44 1.43 1.34 1.26 1.19 1.19 1.18 1.12

GEFSMW_prec_meanprecacc_216.txt.gz
Total_Precipitation_Accumulation
1.88 2.25 2.61 3.05 3.49 4.00 4.74 5.36 5.77 5.74 5.54 5.16 4.77 4.46 3.98 3.68 3.43 3.14 2.92 2.69 2.43 2.32 2.61 2.40 2.66 2.56 2.42 2.25 2.23 2.32 2.35 2.09 2.34 2.54 2.07 1.57 1.32 1.23 1.10 1.11 1.20 1.14 1.23
1.83 2.18 2.68 2.97 3.31 3.83 4.39 4.80 4.78 4.45 4.32 4.30 4.18 3.90 3.92 3.77 3.64 3.37 3.15 2.75 2.57 2.42 2.26 2.42 2.26 2.20 2.26 2.08 1.98 2.16 2.16 1.92 2.26 2.35 2.29 1.74 1.51 1.27 0.90 1.02 1.13 1.22 1.45
1.48 1.82 2.36 2.67 2.84 3.30 3.64 3.67 3.55 3.38 3.41 3.46 3.42 3.50 3.70 3.71 3.65 3.49 3.20 2.91 2.76 2.64 2.50 2.39 2.18 2.09 1.93 1.96 1.98 2.05 2.08 1.98 1.99 2.06 2.22 1.81 1.47 1.27 0.97 0.97 1.15 1.43 1.67
1.24 1.53 1.85 2.08 2.33 2.53 2.67 2.67 2.74 2.76 2.77 2.81 2.80 2.70 2.74 2.92 3.13 3.33 3.36 3.30 3.08 2.84 2.58 2.40 2.16 1.96 1.82 1.95 1.68 1.78 2.04 2.10 1.85 1.86 1.83 1.72 1.79 1.75 1.41 1.07 1.00 1.27 1.46
1.27 1.45 1.55 1.71 1.80 1.82 1.93 1.99 2.28 2.59 2.69 2.73 2.82 2.72 2.45 2.44 2.49 2.63 2.76 2.76 2.76 2.61 2.32 2.21 2.13 1.95 1.79 1.78 1.74 1.96 1.97 1.93 1.84 1.89 1.87 1.94 2.05 1.89 1.76 1.46 1.37 1.45 1.40
0.97 1.19 1.43 1.51 1.45 1.43 1.59 1.79 2.09 2.47 2.68 2.72 2.68 2.65 2.55 2.51 2.42 2.41 2.45 2.32 2.31 2.25 2.11 2.03 2.05 1.90 1.77 1.75 1.75 1.86 1.93 2.00 2.05 2.02 1.97 2.01 1.98 1.98 2.15 1.90 1.76 1.71 1.49
0.73 0.74 0.92 1.16 1.12 1.09 1.23 1.50 1.70 1.98 2.19 2.29 2.29 2.22 2.33 2.42 2.30 2.17 2.09 2.01 1.87 1.79 1.81 1.89 1.97 1.81 1.75 1.82 1.94 1.90 1.86 1.96 2.04 1.97 2.01 2.07 2.00 2.10 2.25 2.21 1.97 1.81 1.63
0.53 0.51 0.58 0.72 0.93 0.94 0.98 1.10 1.34 1.53 1.72 1.81 1.93 2.03 2.20 2.30 2.25 2.40 2.21 2.04 1.75 1.62 1.68 1.87 1.92 1.83 1.75 1.73 2.01 2.00 1.99 2.05 2.04 1.92 2.15 2.19 2.01 2.20 2.41 2.51 2.52 2.26 2.11
0.41 0.43 0.50 0.68 0.69 0.68 0.73 0.85 1.07 1.24 1.40 1.55 1.73 1.80 1.78 1.79 1.93 2.11 2.13 1.98 1.88 1.70 1.77 1.83 1.98 2.04 2.07 2.09 2.21 2.13 2.14 2.30 2.28 2.21 2.34 2.34 2.22 2.24 2.37 2.59 2.77 2.81 2.63
0.40 0.41 0.44 0.51 0.50 0.49 0.64 0.87 1.04 1.05 1.27 1.57 1.75 1.66 1.65 1.56 1.70 1.77 1.82 1.88 1.82 1.80 1.84 1.84 1.90 2.00 2.09 2.15 2.28 2.25 2.31 2.49 2.51 2.56 2.64 2.53 2.29 2.35 2.42 2.56 2.82 3.06 3.08
0.45 0.45 0.44 0.44 0.55 0.49 0.59 0.75 0.87 1.00 1.26 1.58 1.77 1.76 1.62 1.61 1.73 1.66 1.64 1.76 1.80 1.78 1.83 1.83 1.80 1.78 1.91 2.12 2.31 2.29 2.43 2.55 2.59 2.59 2.50 2.40 2.43 2.56 2.48 2.59 2.74 2.94 3.14
0.38 0.36 0.33 0.38 0.38 0.38 0.51 0.80 1.11 1.45 1.60 1.84 2.08 2.08 1.79 1.62 1.56 1.45 1.46 1.65 1.84 1.86 1.83 1.81 1.78 1.73 1.82 2.08 2.26 2.37 2.63 2.76 2.66 2.57 2.52 2.41 2.50 2.59 2.54 2.59 2.57 2.62 2.89
0.39 0.39 0.35 0.42 0.39 0.38 0.42 0.56 0.70 1.03 1.34 1.65 1.91 1.85 1.61 1.46 1.42 1.44 1.50 1.64 1.78 1.79 1.75 1.77 1.82 1.93 2.04 2.23 2.37 2.48 2.67 2.65 2.54 2.54 2.45 2.33 2.38 2.34 2.40 2.44 2.40 2.37 2.46
0.49 0.45 0.42 0.40 0.40 0.41 0.38 0.46 0.53 0.61 0.81 1.20 1.48 1.49 1.36 1.32 1.35 1.41 1.43 1.43 1.47 1.53 1.59 1.79 2.02 2.19 2.32 2.40 2.45 2.45 2.44 2.44 2.35 2.25 2.16 2.15 2.23 2.29 2.28 2.20 2.19 2.24 2.36
0.49 0.47 0.46 0.50 0.52 0.57 0.52 0.49 0.52 0.55 0.71 1.09 1.31 1.29 1.26 1.27 1.25 1.25 1.33 1.40 1.46 1.50 1.71 1.90 2.01 2.06 2.12 2.20 2.31 2.31 2.24 2.20 2.11 2.00 1.81 1.83 2.11 2.24 2.18 2.00 2.07 2.18 2.27
0.47 0.44 0.39 0.49 0.57 0.61 0.60 0.56 0.55 0.60 0.72 0.99 1.21 1.21 1.20 1.18 1.12 1.17 1.27 1.43 1.53 1.68 1.86 1.89 1.88 1.84 1.61 1.71 1.83 1.86 1.88 1.87 1.84 1.74 1.68 1.69 1.78 1.78 1.80 1.77 1.76 1.82 1.93
0.45 0.40 0.44 0.57 0.77 0.69 0.65 0.69 0.64 0.65 0.78 0.98 1.16 1.25 1.22 1.24 1.23 1.20 1.37 1.56 1.71 1.85 1.97 1.95 1.90 1.79 1.72 1.62 1.51 1.49 1.54 1.67 1.69 1.70 1.74 1.51 1.39 1.50 1.53 1.62 1.58 1.53 1.62
0.56 0.58 0.56 0.61 0.68 0.64 0.67 0.72 0.72 0.72 0.83 1.03 1.25 1.34 1.28 1.34 1.42 1.43 1.51 1.72 1.93 2.07 2.09 2.04 1.97 1.92 1.86 1.75 1.54 1.50 1.46 1.58 1.61 1.60 1.60 1.58 1.50 1.47 1.57 1.63 1.57 1.44 1.40
0.67 0.70 0.74 0.72 0.77 0.80 0.79 0.79 0.85 0.90 0.99 1.09 1.26 1.37 1.43 1.51 1.54 1.58 1.75 1.96 2.15 2.19 2.15 2.19 2.11 2.04 2.07 1.91 1.58 1.42 1.38 1.56 1.59 1.58 1.55 1.52 1.48 1.52 1.40 1.37 1.39 1.37 1.33
0.83 0.78 0.82 0.85 0.88 0.92 0.97 0.98 1.04 1.17 1.32 1.41 1.48 1.66 1.84 1.99 2.07 2.12 2.19 2.24 2.31 2.23 2.20 2.18 2.19 2.12 2.12 2.02 1.53 1.30 1.30 1.50 1.54 1.61 1.58 1.49 1.36 1.33 1.21 1.19 1.33 1.30 1.28
0.75 0.79 0.79 0.88 0.96 0.97 1.08 1.24 1.32 1.42 1.56 1.70 1.78 1.97 2.27 2.44 2.43 2.44 2.39 2.31 2.31 2.33 2.30 2.22 2.20 2.16 2.08 1.99 1.58 1.39 1.41 1.55 1.64 1.64 1.60 1.54 1.40 1.20 1.15 1.10 1.14 1.19 1.17
0.70 0.78 0.82 0.86 1.01 1.23 1.41 1.64 1.71 1.66 1.76 1.93 2.08 2.27 2.51 2.45 2.37 2.55 2.49 2.45 2.53 2.52 2.38 2.28 2.20 2.21 2.17 1.99 1.67 1.42 1.47 1.61 1.73 1.80 1.75 1.66 1.44 1.20 1.11 1.03 1.01 0.97 0.90
0.68 0.76 0.83 0.92 1.05 1.29 1.64 1.87 1.91 1.97 2.02 2.11 2.21 2.27 2.37 2.55 2.71 2.78 2.68 2.60 2.60 2.53 2.34 2.23 2.10 2.02 2.08 2.10 1.69 1.41 1.46 1.54 1.58 1.75 1.78 1.53 1.31 1.15 0.99 0.97 0.96 0.85 0.78
0.73 0.76 0.84 1.01 1.23 1.43 1.70 1.84 1.86 1.90 1.97 1.99 1.98 2.05 2.20 2.35 2.44 2.68 2.75 2.66 2.54 2.47 2.41 2.31 2.15 2.04 2.05 2.05 1.72 1.40 1.38 1.44 1.44 1.52 1.59 1.45 1.28 1.14 1.02 0.96 0.91 0.86 0.87
0.75 0.83 0.91 1.02 1.15 1.34 1.52 1.59 1.75 1.82 1.93 1.94 1.90 1.89 1.91 2.02 2.12 2.23 2.34 2.32 2.30 2.12 2.02 1.94 1.88 1.85 1.87 1.83 1.57 1.38 1.37 1.48 1.53 1.49 1.51 1.51 1.38 1.25 1.15 1.12 1.14 1.15 1.09
0.72 0.83 0.94 1.05 1.14 1.29 1.49 1.57 1.69 1.77 1.82 1.80 1.74 1.76 1.77 1.85 1.89 1.90 1.84 1.68 1.61 1.47 1.32 1.27 1.22 1.24 1.29 1.39 1.23 1.11 1.19 1.34 1.39 1.31 1.34 1.45 1.44 1.37 1.29 1.22 1.22 1.20 1.14

GEFSMW_prec_meanprecacc_222.txt.gz
Total_Precipitation_Accumulation
1.88 2.26 2.61 3.05 3.50 4.01 4.75 5.37 5.79 5.77 5.57 5.19 4.80 4.52 4.04 3.73 3.47 3.18 2.95 2.73 2.48 2.38 2.70 2.47 2.73 2.62 2.49 2.33 2.30 2.39 2.41 2.16 2.40 2.61 2.13 1.63 1.38 1.29 1.16 1.15 1.23 1.17 1.26
1.84 2.18 2.69 2.98 3.32 3.84 4.40 4.81 4.80 4.47 4.34 4.32 4.21 3.95 3.96 3.81 3.67 3.41 3.18 2.79 2.61 2.47 2.33 2.50 2.33 2.27 2.33 2.16 2.05 2.24 2.23 1.99 2.34 2.44 2.38 1.82 1.58 1.33 0.95 1.07 1.18 1.27 1.51
1.48 1.82 2.37 2.67 2.85 3.31 3.66 3.68 3.56 3.39 3.43 3.48 3.44 3.52 3.73 3.73 3.68 3.52 3.24 2.95 2.80 2.68 2.54 2.44 2.24 2.16 1.99 2.04 2.08 2.15 2.18 2.09 2.10 2.15 2.33 1.93 1.57 1.34 1.02 1.02 1.20 1.48 1.72
1.25 1.54 1.86 2.08 2.33 2.55 2.69 2.68 2.77 2.78 2.80 2.83 2.82 2.74 2.76 2.94 3.15 3.36 3.40 3.34 3.11 2.86 2.59 2.42 2.19 2.00 1.86 2.02 1.75 1.85 2.14 2.21 1.95 1.95 1.90 1.81 1.89 1.84 1.48 1.13 1.05 1.31 1.50
1.27 1.46 1.56 1.71 1.80 1.82 1.94 2.01 2.30 2.61 2.71 2.76 2.85 2.75 2.47 2.45 2.50 2.64 2.78 2.79 2.78 2.62 2.34 2.22 2.14 1.98 1.83 1.81 1.78 2.02 2.04 2.00 1.93 1.96 1.92 2.01 2.13 1.97 1.85 1.53 1.42 1.50 1.45
0.98 1.19 1.44 1.52 1.46 1.43 1.59 1.81 2.11 2.48 2.69 2.74 2.70 2.66 2.56 2.51 2.43 2.44 2.48 2.36 2.34 2.28 2.13 2.04 2.07 1.93 1.80 1.78 1.78 1.91 1.98 2.05 2.12 2.10 2.04 2.09 2.06 2.07 2.26 1.99 1.81 1.77 1.54
0.73 0.74 0.93 1.16 1.13 1.10 1.25 1.51 1.70 1.99 2.21 2.31 2.30 2.23 2.33 2.43 2.31 2.18 2.11 2.04 1.90 1.81 1.82 1.90 1.99 1.83 1.77 1.84 1.97 1.95 1.90 2.01 2.11 2.03 2.07 2.13 2.07 2.20 2.37 2.30 2.02 1.87 1.67
0.53 0.51 0.58 0.72 0.94 0.95 1.00 1.11 1.35 1.55 1.74 1.83 1.94 2.04 2.21 2.30 2.25 2.40 2.22 2.07 1.78 1.64 1.69 1.88 1.94 1.85 1.78 1.75 2.04 2.04 2.03 2.09 2.08 1.96 2.20 2.25 2.08 2.27 2.49 2.59 2.60 2.32 2.16
0.41 0.43 0.50 0.68 0.70 0.69 0.75 0.86 1.08 1.26 1.42 1.57 1.73 1.80 1.79 1.80 1.93 2.12 2.14 1.99 1.90 1.71 1.78 1.84 2.00 2.07 2.11 2.13 2.27 2.17 2.17 2.34 2.32 2.25 2.39 2.40 2.27 2.29 2.42 2.67 2.86 2.88 2.71
0.40 0.41 0.44 0.52 0.51 0.50 0.65 0.87 1.05 1.07 1.28 1.58 1.76 1.66 1.65 1.57 1.70 1.78 1.83 1.89 1.84 1.82 1.85 1.86 1.93 2.03 2.14 2.20 2.34 2.31 2.36 2.54 2.56 2.60 2.68 2.56 2.32 2.38 2.45 2.61 2.88 3.13 3.16
0.45 0.45 0.45 0.44 0.55 0.50 0.59 0.76 0.88 1.00 1.28 1.59 1.79 1.78 1.63 1.62 1.74 1.68 1.66 1.78 1.81 1.79 1.85 1.86 1.83 1.81 1.94 2.15 2.34 2.32 2.47 2.59 2.64 2.62 2.53 2.42 2.45 2.58 2.51 2.63 2.79 3.01 3.22
0.38 0.36 0.33 0.38 0.38 0.39 0.51 0.80 1.12 1.46 1.61 1.85 2.10 2.09 1.80 1.63 1.57 1.46 1.47 1.66 1.84 1.87 1.84 1.82 1.79 1.75 1.84 2.10 2.28 2.39 2.65 2.78 2.68 2.60 2.54 2.43 2.52 2.61 2.57 2.63 2.62 2.68 2.96
0.39 0.39 0.35 0.43 0.40 0.39 0.43 0.57 0.71 1.04 1.35 1.66 1.92 1.86 1.62 1.47 1.43 1.44 1.50 1.65 1.78 1.79 1.76 1.78 1.83 1.94 2.05 2.24 2.38 2.49 2.68 2.65 2.55 2.56 2.47 2.36 2.41 2.37 2.43 2.46 2.44 2.41 2.51
0.50 0.45 0.43 0.41 0.41 0.42 0.40 0.49 0.55 0.62 0.82 1.21 1.48 1.50 1.37 1.32 1.35 1.41 1.43 1.43 1.47 1.54 1.60 1.80 2.03 2.20 2.33 2.41 2.45 2.46 2.44 2.44 2.36 2.26 2.17 2.17 2.26 2.32 2.31 2.24 2.22 2.28 2.41
0.49 0.47 0.46 0.50 0.53 0.59 0.58 0.56 0.57 0.58 0.72 1.10 1.32 1.29 1.27 1.28 1.25 1.25 1.33 1.40 1.46 1.51 1.72 1.90 2.01 2.06 2.12 2.20 2.31 2.31 2.25 2.21 2.12 2.01 1.83 1.85 2.14 2.26 2.23 2.06 2.13 2.22 2.32
0.47 0.44 0.39 0.49 0.58 0.64 0.65 0.62 0.61 0.63 0.74 1.00 1.22 1.22 1.20 1.18 1.13 1.18 1.27 1.44 1.54 1.69 1.87 1.90 1.88 1.85 1.61 1.71 1.83 1.87 1.89 1.89 1.85 1.75 1.69 1.71 1.80 1.80 1.84 1.83 1.83 1.90 1.98
0.46 0.41 0.45 0.59 0.79 0.71 0.69 0.73 0.67 0.66 0.79 0.99 1.17 1.26 1.23 1.25 1.23 1.21 1.37 1.57 1.72 1.87 1.98 1.96 1.90 1.79 1.72 1.62 1.51 1.49 1.54 1.67 1.70 1.72 1.76 1.55 1.42 1.53 1.56 1.67 1.64 1.59 1.66
0.57 0.60 0.58 0.67 0.74 0.70 0.72 0.75 0.74 0.73 0.84 1.04 1.25 1.34 1.29 1.34 1.43 1.43 1.52 1.74 1.95 2.08 2.10 2.06 1.98 1.92 1.86 1.76 1.54 1.50 1.46 1.59 1.63 1.62 1.64 1.61 1.53 1.51 1.60 1.67 1.62 1.48 1.43
0.68 0.72 0.78 0.80 0.86 0.87 0.83 0.80 0.87 0.91 1.00 1.09 1.27 1.38 1.43 1.52 1.54 1.58 1.76 1.97 2.16 2.20 2.16 2.20 2.11 2.05 2.08 1.92 1.58 1.43 1.40 1.57 1.60 1.59 1.56 1.53 1.49 1.54 1.42 1.39 1.42 1.40 1.35
0.85 0.81 0.86 0.88 0.91 0.94 0.98 0.99 1.05 1.18 1.33 1.42 1.49 1.67 1.84 2.00 2.08 2.13 2.20 2.25 2.32 2.24 2.20 2.18 2.19 2.13 2.12 2.02 1.53 1.30 1.31 1.50 1.55 1.61 1.59 1.49 1.36 1.33 1.22 1.21 1.34 1.32 1.29
0.79 0.83 0.82 0.90 0.98 0.99 1.10 1.25 1.33 1.44 1.57 1.71 1.79 1.98 2.27 2.44 2.44 2.45 2.40 2.32 2.33 2.34 2.32 2.23 2.21 2.17 2.09 2.00 1.58 1.39 1.41 1.56 1.64 1.64 1.60 1.54 1.40 1.20 1.15 1.12 1.17 1.22 1.19
0.73 0.81 0.85 0.89 1.03 1.25 1.43 1.66 1.75 1.70 1.79 1.95 2.10 2.29 2.52 2.46 2.38 2.56 2.50 2.47 2.54 2.52 2.40 2.30 2.21 2.22 2.17 1.99 1.67 1.43 1.47 1.62 1.74 1.81 1.76 1.66 1.44 1.20 1.11 1.04 1.04 1.00 0.93
0.71 0.78 0.85 0.95 1.07 1.31 1.66 1.90 1.97 2.07 2.09 2.15 2.23 2.29 2.39 2.57 2.73 2.80 2.69 2.62 2.60 2.54 2.35 2.24 2.11 2.04 2.09 2.11 1.70 1.42 1.47 1.56 1.60 1.77 1.80 1.54 1.31 1.15 1.00 0.97 0.97 0.87 0.81
0.75 0.79 0.86 1.03 1.25 1.44 1.72 1.87 1.92 1.97 2.00 2.02 2.01 2.08 2.22 2.37 2.46 2.70 2.76 2.67 2.55 2.48 2.42 2.33 2.17 2.06 2.07 2.07 1.73 1.42 1.41 1.48 1.47 1.54 1.61 1.47 1.30 1.15 1.02 0.97 0.92 0.87 0.89
0.78 0.84 0.92 1.03 1.16 1.36 1.54 1.62 1.77 1.85 1.95 1.96 1.91 1.90 1.92 2.04 2.13 2.23 2.35 2.33 2.32 2.14 2.04 1.96 1.89 1.86 1.89 1.85 1.60 1.40 1.39 1.50 1.55 1.52 1.54 1.53 1.39 1.26 1.16 1.13 1.15 1.16 1.11
0.73 0.84 0.95 1.06 1.15 1.31 1.51 1.59 1.71 1.80 1.84 1.82 1.75 1.76 1.78 1.85 1.90 1.90 1.85 1.69 1.62 1.48 1.34 1.29 1.23 1.25 1.30 1.40 1.25 1.12 1.21 1.36 1.42 1.33 1.35 1.46 1.45 1.38 1.30 1.23 1.23 1.22 1.15

GEFSMW_prec_meanprecacc_228.txt.gz
Total_Precipitation_Accumulation
1.88 2.26 2.61 3.07 3.51 4.03 4.76 5.38 5.80 5.78 5.60 5.26 4.89 4.61 4.10 3.77 3.50 3.22 2.98 2.77 2.52 2.44 2.79 2.56 2.81 2.69 2.60 2.43 2.38 2.48 2.53 2.28 2.51 2.73 2.24 1.72 1.45 1.37 1.28 1.27 1.33 1.25 1.35
1.84 2.18 2.69 2.99 3.34 3.85 4.40 4.82 4.82 4.49 4.37 4.39 4.29 4.04 4.03 3.85 3.70 3.43 3.20 2.81 2.63 2.51 2.39 2.58 2.40 2.36 2.44 2.26 2.15 2.34 2.34 2.11 2.45 2.56 2.51 1.94 1.69 1.42 1.02 1.13 1.26 1.33 1.58
1.49 1.82 2.37 2.68 2.87 3.33 3.67 3.70 3.59 3.42 3.47 3.53 3.51 3.60 3.80 3.79 3.72 3.55 3.27 2.98 2.82 2.71 2.59 2.49 2.29 2.22 2.06 2.14 2.18 2.24 2.27 2.19 2.19 2.25 2.44 2.07 1.71 1.44 1.09 1.07 1.27 1.53 1.78
1.25 1.54 1.86 2.08 2.34 2.56 2.70 2.69 2.78 2.81 2.82 2.87 2.90 2.82 2.84 3.01 3.20 3.40 3.44 3.37 3.12 2.87 2.61 2.44 2.22 2.05 1.91 2.09 1.83 1.94 2.23 2.32 2.05 2.04 2.00 1.92 2.00 1.93 1.56 1.20 1.12 1.37 1.56
1.27 1.46 1.56 1.71 1.80 1.82 1.94 2.01 2.31 2.63 2.73 2.80 2.91 2.81 2.53 2.51 2.54 2.67 2.81 2.82 2.81 2.64 2.34 2.24 2.17 2.01 1.87 1.86 1.83 2.09 2.11 2.09 2.02 2.07 2.03 2.13 2.26 2.08 1.93 1.60 1.50 1.59 1.53
0.98 1.19 1.44 1.52 1.46 1.43 1.60 1.82 2.12 2.50 2.72 2.79 2.74 2.70 2.59 2.55 2.46 2.48 2.52 2.39 2.37 2.30 2.14 2.06 2.11 1.96 1.83 1.81 1.82 1.96 2.02 2.12 2.20 2.19 2.14 2.19 2.18 2.21 2.40 2.09 1.89 1.84 1.62
0.73 0.74 0.93 1.17 1.13 1.11 1.27 1.54 1.72 2.02 2.24 2.34 2.34 2.26 2.35 2.46 2.34 2.22 2.16 2.08 1.94 1.85 1.85 1.93 2.02 1.86 1.80 1.86 2.00 2.00 1.95 2.07 2.17 2.10 2.16 2.22 2.17 2.31 2.50 2.43 2.11 1.96 1.75
0.53 0.51 0.58 0.73 0.94 0.96 1.02 1.13 1.37 1.58 1.77 1.85 1.97 2.08 2.23 2.34 2.28 2.43 2.24 2.09 1.80 1.65 1.71 1.90 1.96 1.87 1.80 1.78 2.09 2.08 2.08 2.16 2.15 2.04 2.31 2.36 2.16 2.35 2.58 2.70 2.71 2.43 2.25
0.42 0.43 0.50 0.69 0.70 0.71 0.77 0.87 1.10 1.29 1.45 1.59 1.75 1.83 1.80 1.82 1.95 2.13 2.16 2.01 1.91 1.72 1.79 1.86 2.03 2.10 2.15 2.17 2.32 2.24 2.23 2.40 2.38 2.33 2.48 2.48 2.33 2.35 2.48 2.75 2.95 2.97 2.79
0.40 0.41 0.44 0.52 0.52 0.52 0.65 0.88 1.06 1.09 1.31 1.61 1.78 1.68 1.66 1.57 1.72 1.81 1.85 1.91 1.86 1.83 1.86 1.87 1.95 2.06 2.17 2.24 2.40 2.38 2.43 2.60 2.62 2.67 2.74 2.60 2.36 2.44 2.51 2.68 2.95 3.21 3.23
0.45 0.45 0.45 0.45 0.56 0.50 0.60 0.77 0.89 1.02 1.31 1.61 1.80 1.79 1.64 1.62 1.75 1.69 1.67 1.80 1.83 1.81 1.86 1.87 1.84 1.83 1.97 2.19 2.39 2.37 2.52 2.64 2.70 2.69 2.59 2.47 2.51 2.64 2.56 2.70 2.86 3.09 3.31
0.38 0.36 0.33 0.39 0.40 0.40 0.52 0.81 1.12 1.47 1.63 1.87 2.10 2.10 1.81 1.64 1.58 1.47 1.49 1.67 1.86 1.88 1.84 1.83 1.80 1.76 1.86 2.12 2.31 2.42 2.67 2.81 2.73 2.65 2.59 2.47 2.57 2.66 2.62 2.69 2.70 2.76 3.04
0.40 0.39 0.36 0.44 0.42 0.40 0.44 0.57 0.72 1.04 1.35 1.67 1.93 1.87 1.64 1.48 1.45 1.46 1.52 1.66 1.79 1.80 1.76 1.78 1.84 1.96 2.07 2.26 2.40 2.51 2.69 2.66 2.57 2.59 2.51 2.39 2.45 2.41 2.47 2.51 2.49 2.48 2.58
0.50 0.46 0.44 0.42 0.42 0.43 0.42 0.51 0.57 0.64 0.84 1.23 1.50 1.51 1.38 1.33 1.36 1.42 1.44 1.44 1.48 1.55 1.61 1.82 2.05 2.21 2.34 2.42 2.46 2.47 2.45 2.45 2.37 2.28 2.20 2.20 2.29 2.35 2.35 2.28 2.27 2.33 2.46
0.50 0.48 0.47 0.52 0.54 0.59 0.58 0.58 0.59 0.61 0.76 1.14 1.34 1.31 1.27 1.28 1.25 1.26 1.34 1.41 1.47 1.52 1.73 1.91 2.02 2.07 2.13 2.21 2.32 2.32 2.26 2.23 2.14 2.03 1.85 1.88 2.16 2.29 2.26 2.09 2.16 2.25 2.35
0.48 0.45 0.40 0.50 0.59 0.64 0.65 0.63 0.63 0.66 0.77 1.03 1.23 1.23 1.21 1.19 1.14 1.19 1.29 1.45 1.55 1.71 1.88 1.91 1.89 1.85 1.61 1.71 1.83 1.87 1.90 1.90 1.87 1.77 1.71 1.72 1.82 1.83 1.86 1.85 1.85 1.91 2.00
0.46 0.42 0.47 0.59 0.79 0.71 0.71 0.76 0.69 0.68 0.81 1.01 1.18 1.26 1.23 1.26 1.24 1.22 1.38 1.58 1.74 1.89 2.00 1.97 1.91 1.80 1.73 1.63 1.51 1.49 1.54 1.67 1.70 1.72 1.77 1.56 1.42 1.54 1.57 1.68 1.66 1.61 1.68
0.58 0.62 0.59 0.68 0.75 0.72 0.75 0.77 0.76 0.75 0.85 1.05 1.26 1.35 1.30 1.35 1.44 1.44 1.53 1.75 1.96 2.10 2.12 2.07 1.99 1.92 1.86 1.76 1.54 1.50 1.46 1.59 1.63 1.63 1.65 1.62 1.54 1.52 1.61 1.68 1.64 1.51 1.45
0.69 0.74 0.79 0.82 0.89 0.91 0.86 0.83 0.89 0.93 1.01 1.10 1.27 1.38 1.44 1.52 1.55 1.59 1.77 1.99 2.17 2.21 2.17 2.21 2.12 2.05 2.08 1.92 1.58 1.43 1.40 1.57 1.61 1.60 1.57 1.54 1.51 1.55 1.42 1.40 1.44 1.43 1.39
0.85 0.82 0.87 0.90 0.94 0.97 1.01 1.01 1.07 1.20 1.34 1.43 1.50 1.68 1.85 2.01 2.09 2.14 2.21 2.26 2.33 2.25 2.21 2.19 2.20 2.13 2.13 2.02 1.53 1.30 1.31 1.50 1.55 1.62 1.60 1.49 1.37 1.33 1.22 1.22 1.37 1.35 1.33
0.80 0.85 0.86 0.94 1.02 1.03 1.13 1.28 1.36 1.46 1.59 1.72 1.79 1.99 2.28 2.45 2.45 2.47 2.42 2.34 2.35 2.36 2.33 2.24 2.21 2.17 2.09 2.00 1.58 1.39 1.41 1.56 1.65 1.64 1.61 1.55 1.40 1.21 1.15 1.12 1.18 1.24 1.21
0.74 0.84 0.89 0.93 1.08 1.30 1.47 1.70 1.78 1.75 1.83 1.97 2.12 2.31 2.54 2.49 2.43 2.60 2.53 2.49 2.56 2.54 2.41 2.30 2.21 2.23 2.18 1.99 1.68 1.43 1.47 1.62 1.74 1.81 1.77 1.67 1.45 1.20 1.11 1.04 1.04 1.01 0.94
0.72 0.81 0.89 0.99 1.13 1.37 1.71 1.94 2.00 2.10 2.12 2.18 2.30 2.36 2.44 2.61 2.77 2.83 2.72 2.63 2.62 2.55 2.36 2.25 2.12 2.04 2.10 2.12 1.71 1.42 1.47 1.56 1.61 1.78 1.82 1.55 1.32 1.15 1.00 0.98 0.97 0.87 0.81
0.77 0.81 0.89 1.06 1.30 1.50 1.79 1.93 1.96 1.99 2.02 2.05 2.05 2.13 2.26 2.40 2.49 2.73 2.79 2.70 2.57 2.50 2.44 2.34 2.18 2.06 2.08 2.07 1.74 1.43 1.41 1.48 1.47 1.55 1.62 1.48 1.30 1.15 1.03 0.97 0.93 0.88 0.90
0.79 0.87 0.95 1.07 1.21 1.41 1.60 1.68 1.81 1.87 1.97 1.98 1.93 1.92 1.95 2.07 2.17 2.27 2.38 2.35 2.34 2.16 2.06 1.97 1.90 1.88 1.90 1.87 1.61 1.41 1.40 1.51 1.56 1.53 1.55 1.54 1.40 1.27 1.17 1.14 1.17 1.18 1.13
0.76 0.86 0.98 1.11 1.21 1.37 1.58 1.65 1.76 1.83 1.88 1.84 1.77 1.79 1.81 1.89 1.94 1.93 1.88 1.72 1.65 1.50 1.35 1.29 1.24 1.25 1.31 1.41 1.26 1.13 1.22 1.37 1.42 1.34 1.36 1.47 1.46 1.39 1.31 1.25 1.25 1.24 1.18

GEFSMW_prec_meanprecacc_234.txt.gz
Total_Precipitation_Accumulation
1.90 2.27 2.63 3.11 3.55 4.05 4.77 5.39 5.82 5.79 5.61 5.26 4.90 4.64 4.12 3.79 3.52 3.24 3.01 2.80 2.56 2.48 2.82 2.58 2.84 2.72 2.62 2.45 2.40 2.51 2.56 2.32 2.54 2.76 2.28 1.77 1.51 1.44 1.34 1.33 1.40 1.33 1.41
1.86 2.20 2.71 3.01 3.37 3.87 4.43 4.84 4.84 4.51 4.38 4.39 4.30 4.06 4.05 3.86 3.72 3.44 3.22 2.83 2.67 2.56 2.42 2.59 2.42 2.38 2.46 2.28 2.17 2.36 2.36 2.13 2.47 2.59 2.54 1.97 1.74 1.49 1.07 1.18 1.31 1.40 1.63
1.50 1.83 2.38 2.69 2.88 3.35 3.69 3.72 3.61 3.43 3.48 3.54 3.53 3.61 3.82 3.80 3.73 3.57 3.29 3.00 2.85 2.74 2.61 2.50 2.31 2.25 2.08 2.16 2.20 2.26 2.30 2.22 2.22 2.28 2.47 2.11 1.75 1.47 1.13 1.14 1.35 1.65 1.87
1.26 1.56 1.87 2.10 2.36 2.60 2.72 2.71 2.80 2.82 2.84 2.89 2.92 2.83 2.86 3.02 3.21 3.41 3.46 3.39 3.14 2.88 2.62 2.45 2.24 2.07 1.93 2.12 1.85 1.96 2.25 2.34 2.08 2.08 2.05 1.97 2.05 1.97 1.59 1.27 1.19 1.45 1.66
1.29 1.48 1.58 1.74 1.83 1.86 1.97 2.04 2.33 2.64 2.75 2.82 2.91 2.83 2.55 2.52 2.56 2.69 2.83 2.84 2.82 2.65 2.36 2.25 2.18 2.03 1.89 1.89 1.85 2.11 2.14 2.11 2.05 2.11 2.08 2.18 2.31 2.13 1.97 1.65 1.56 1.67 1.65
0.99 1.21 1.46 1.54 1.49 1.46 1.62 1.83 2.13 2.52 2.74 2.81 2.76 2.71 2.60 2.57 2.48 2.49 2.54 2.41 2.38 2.32 2.16 2.07 2.12 1.98 1.85 1.84 1.85 1.99 2.05 2.15 2.24 2.24 2.20 2.24 2.22 2.24 2.44 2.12 1.92 1.88 1.66
0.76 0.77 0.95 1.19 1.16 1.12 1.29 1.55 1.73 2.04 2.26 2.37 2.35 2.27 2.36 2.47 2.36 2.23 2.16 2.09 1.95 1.86 1.87 1.94 2.03 1.87 1.81 1.88 2.02 2.02 1.98 2.12 2.22 2.15 2.20 2.27 2.21 2.34 2.54 2.47 2.16 2.00 1.79
0.56 0.55 0.61 0.75 0.96 0.98 1.04 1.15 1.38 1.60 1.79 1.87 1.98 2.08 2.24 2.34 2.29 2.43 2.24 2.09 1.80 1.66 1.72 1.91 1.97 1.89 1.82 1.80 2.12 2.12 2.12 2.20 2.18 2.08 2.35 2.40 2.20 2.39 2.62 2.74 2.75 2.46 2.30
0.46 0.46 0.54 0.71 0.73 0.73 0.79 0.90 1.13 1.32 1.47 1.60 1.76 1.83 1.81 1.82 1.95 2.14 2.16 2.01 1.92 1.73 1.80 1.87 2.04 2.12 2.17 2.19 2.34 2.26 2.25 2.43 2.41 2.36 2.51 2.50 2.36 2.39 2.51 2.78 2.98 2.99 2.81
0.46 0.44 0.46 0.53 0.54 0.53 0.67 0.91 1.10 1.13 1.33 1.62 1.78 1.68 1.67 1.58 1.72 1.81 1.85 1.91 1.86 1.84 1.88 1.89 1.95 2.06 2.17 2.26 2.41 2.39 2.45 2.62 2.64 2.68 2.76 2.63 2.40 2.49 2.55 2.71 2.98 3.23 3.25
0.47 0.47 0.46 0.46 0.57 0.51 0.61 0.78 0.91 1.04 1.33 1.62 1.81 1.80 1.64 1.63 1.75 1.70 1.67 1.80 1.84 1.82 1.87 1.88 1.85 1.84 1.98 2.20 2.40 2.38 2.52 2.64 2.70 2.70 2.61 2.49 2.53 2.67 2.61 2.74 2.89 3.11 3.32
0.39 0.37 0.34 0.40 0.40 0.40 0.52 0.82 1.13 1.47 1.63 1.87 2.11 2.11 1.81 1.64 1.59 1.49 1.50 1.67 1.86 1.89 1.85 1.84 1.81 1.77 1.87 2.13 2.32 2.43 2.68 2.81 2.73 2.65 2.59 2.48 2.58 2.68 2.65 2.71 2.72 2.78 3.06
0.41 0.41 0.37 0.45 0.42 0.41 0.44 0.58 0.72 1.05 1.36 1.67 1.93 1.88 1.64 1.49 1.47 1.48 1.53 1.66 1.80 1.81 1.77 1.79 1.85 1.97 2.09 2.28 2.41 2.51 2.69 2.66 2.57 2.59 2.51 2.40 2.46 2.42 2.48 2.52 2.50 2.49 2.60
0.53 0.48 0.45 0.43 0.42 0.43 0.42 0.51 0.59 0.68 0.88 1.25 1.51 1.52 1.39 1.34 1.37 1.43 1.45 1.45 1.49 1.55 1.62 1.82 2.06 2.22 2.35 2.43 2.48 2.47 2.45 2.45 2.37 2.28 2.20 2.20 2.30 2.36 2.37 2.30 2.28 2.34 2.48
0.54 0.51 0.49 0.53 0.54 0.59 0.59 0.58 0.60 0.63 0.79 1.16 1.36 1.33 1.29 1.29 1.26 1.27 1.36 1.42 1.48 1.53 1.75 1.93 2.03 2.08 2.14 2.22 2.32 2.32 2.27 2.23 2.14 2.03 1.85 1.88 2.17 2.30 2.28 2.11 2.18 2.27 2.37
0.54 0.51 0.44 0.52 0.60 0.65 0.66 0.64 0.65 0.68 0.80 1.05 1.26 1.25 1.22 1.21 1.15 1.20 1.30 1.45 1.56 1.72 1.90 1.92 1.90 1.87 1.62 1.72 1.84 1.87 1.90 1.90 1.87 1.77 1.71 1.72 1.82 1.84 1.88 1.86 1.86 1.92 2.01
0.52 0.51 0.53 0.63 0.82 0.74 0.73 0.78 0.71 0.71 0.83 1.03 1.20 1.28 1.25 1.27 1.25 1.22 1.39 1.58 1.75 1.91 2.02 1.98 1.92 1.82 1.74 1.63 1.52 1.50 1.55 1.68 1.71 1.72 1.77 1.56 1.43 1.55 1.58 1.69 1.66 1.61 1.69
0.61 0.67 0.65 0.72 0.80 0.77 0.80 0.83 0.82 0.80 0.90 1.08 1.29 1.37 1.31 1.37 1.45 1.45 1.54 1.76 1.98 2.12 2.14 2.10 2.01 1.94 1.87 1.77 1.55 1.51 1.47 1.60 1.64 1.63 1.65 1.62 1.54 1.52 1.61 1.69 1.64 1.51 1.46
0.72 0.78 0.86 0.88 0.94 0.95 0.90 0.89 0.97 0.99 1.06 1.15 1.31 1.41 1.45 1.53 1.56 1.60 1.78 2.00 2.19 2.24 2.22 2.26 2.15 2.07 2.10 1.93 1.59 1.44 1.41 1.57 1.61 1.60 1.57 1.54 1.51 1.55 1.42 1.40 1.44 1.43 1.40
0.88 0.85 0.91 0.96 0.98 1.01 1.05 1.05 1.12 1.27 1.40 1.48 1.54 1.71 1.87 2.03 2.10 2.15 2.23 2.28 2.37 2.33 2.33 2.27 2.24 2.17 2.15 2.04 1.54 1.31 1.31 1.50 1.55 1.62 1.60 1.49 1.37 1.33 1.22 1.22 1.37 1.35 1.33
0.84 0.90 0.89 0.98 1.06 1.07 1.17 1.32 1.41 1.52 1.65 1.78 1.85 2.03 2.33 2.49 2.48 2.49 2.44 2.37 2.38 2.40 2.37 2.27 2.23 2.18 2.10 2.01 1.59 1.40 1.41 1.56 1.65 1.64 1.61 1.55 1.41 1.21 1.16 1.12 1.19 1.24 1.21
0.76 0.86 0.91 0.96 1.12 1.35 1.53 1.77 1.86 1.83 1.93 2.08 2.22 2.39 2.61 2.55 2.47 2.64 2.57 2.54 2.60 2.57 2.44 2.33 2.23 2.24 2.19 2.00 1.68 1.44 1.48 1.62 1.75 1.81 1.77 1.68 1.45 1.21 1.11 1.04 1.04 1.01 0.94
0.73 0.82 0.90 1.01 1.17 1.44 1.80 2.05 2.10 2.21 2.24 2.32 2.44 2.50 2.55 2.69 2.83 2.88 2.77 2.69 2.66 2.58 2.39 2.27 2.14 2.06 2.11 2.13 1.72 1.44 1.49 1.57 1.61 1.79 1.82 1.56 1.32 1.15 1.00 0.98 0.97 0.88 0.81
0.78 0.82 0.91 1.08 1.33 1.55 1.86 2.02 2.08 2.12 2.15 2.18 2.17 2.23 2.35 2.46 2.55 2.79 2.85 2.75 2.61 2.53 2.46 2.36 2.19 2.08 2.10 2.10 1.76 1.45 1.43 1.50 1.48 1.56 1.63 1.48 1.30 1.15 1.03 0.97 0.93 0.88 0.90
0.81 0.89 0.98 1.10 1.24 1.44 1.65 1.75 1.90 1.98 2.11 2.13 2.07 2.03 2.05 2.16 2.24 2.33 2.43 2.40 2.37 2.19 2.10 2.00 1.93 1.90 1.93 1.90 1.64 1.44 1.42 1.52 1.58 1.54 1.56 1.55 1.41 1.28 1.17 1.14 1.17 1.18 1.13
0.79 0.89 1.00 1.13 1.23 1.40 1.61 1.70 1.84 1.91 1.97 1.97 1.90 1.91 1.91 1.99 2.03 2.01 1.93 1.77 1.69 1.54 1.39 1.33 1.27 1.29 1.34 1.45 1.29 1.15 1.23 1.38 1.44 1.35 1.37 1.48 1.47 1.40 1.32 1.26 1.26 1.25 1.19

GEFSMW_prec_meanprecacc_240.txt.gz
Total_Precipitation_Accumulation
1.92 2.30 2.66 3.13 3.58 4.07 4.79 5.40 5.82 5.81 5.63 5.30 4.94 4.66 4.15 3.82 3.54 3.26 3.04 2.83 2.58 2.50 2.85 2.59 2.85 2.73 2.63 2.46 2.41 2.53 2.58 2.33 2.55 2.77 2.30 1.80 1.54 1.48 1.39 1.38 1.44 1.38 1.46
1.87 2.22 2.73 3.03 3.39 3.89 4.44 4.85 4.84 4.52 4.40 4.42 4.34 4.09 4.07 3.88 3.73 3.46 3.24 2.86 2.69 2.59 2.44 2.61 2.43 2.39 2.47 2.29 2.18 2.38 2.37 2.14 2.48 2.60 2.56 1.99 1.77 1.53 1.12 1.25 1.37 1.46 1.66
1.51 1.85 2.40 2.71 2.91 3.39 3.70 3.73 3.62 3.45 3.50 3.57 3.56 3.64 3.83 3.81 3.74 3.58 3.31 3.01 2.87 2.76 2.64 2.52 2.33 2.26 2.09 2.17 2.21 2.28 2.32 2.24 2.24 2.29 2.49 2.13 1.76 1.49 1.17 1.18 1.40 1.70 1.90
1.27 1.57 1.90 2.13 2.40 2.64 2.74 2.73 2.80 2.83 2.86 2.93 2.96 2.85 2.86 3.03 3.23 3.43 3.48 3.41 3.15 2.91 2.64 2.47 2.25 2.08 1.95 2.13 1.87 1.97 2.26 2.36 2.10 2.11 2.08 2.00 2.06 1.99 1.62 1.31 1.24 1.50 1.71
1.29 1.49 1.60 1.76 1.86 1.88 1.98 2.05 2.33 2.66 2.78 2.87 2.96 2.85 2.56 2.53 2.57 2.70 2.85 2.85 2.82 2.66 2.37 2.25 2.18 2.04 1.91 1.91 1.87 2.14 2.15 2.12 2.07 2.13 2.12 2.21 2.34 2.16 2.00 1.68 1.59 1.70 1.70
1.00 1.22 1.48 1.56 1.51 1.48 1.63 1.84 2.14 2.56 2.79 2.85 2.78 2.73 2.61 2.58 2.50 2.50 2.54 2.42 2.39 2.32 2.16 2.08 2.13 1.99 1.86 1.86 1.86 2.00 2.06 2.16 2.25 2.26 2.23 2.29 2.26 2.28 2.47 2.15 1.94 1.89 1.68
0.76 0.78 0.96 1.21 1.18 1.13 1.29 1.56 1.75 2.09 2.32 2.40 2.37 2.28 2.38 2.48 2.36 2.24 2.16 2.09 1.96 1.88 1.88 1.95 2.04 1.88 1.82 1.89 2.04 2.03 2.00 2.15 2.25 2.18 2.25 2.33 2.27 2.39 2.58 2.51 2.18 2.00 1.80
0.57 0.55 0.62 0.78 1.00 1.00 1.05 1.17 1.42 1.67 1.87 1.91 2.00 2.10 2.25 2.35 2.30 2.44 2.24 2.09 1.81 1.67 1.73 1.92 1.98 1.90 1.83 1.81 2.14 2.13 2.14 2.22 2.21 2.11 2.39 2.45 2.25 2.45 2.67 2.78 2.78 2.48 2.32
0.47 0.47 0.55 0.73 0.76 0.74 0.80 0.92 1.15 1.35 1.50 1.62 1.77 1.84 1.82 1.83 1.96 2.14 2.16 2.01 1.92 1.73 1.81 1.88 2.05 2.13 2.19 2.21 2.34 2.27 2.27 2.44 2.42 2.37 2.53 2.53 2.40 2.43 2.55 2.80 3.01 3.02 2.83
0.47 0.45 0.47 0.55 0.55 0.54 0.68 0.93 1.11 1.14 1.35 1.64 1.80 1.71 1.71 1.61 1.73 1.81 1.85 1.91 1.86 1.85 1.88 1.90 1.97 2.09 2.20 2.26 2.41 2.39 2.45 2.64 2.65 2.70 2.77 2.65 2.42 2.52 2.58 2.73 3.00 3.25 3.27
0.48 0.48 0.46 0.47 0.58 0.52 0.61 0.79 0.92 1.05 1.34 1.64 1.84 1.84 1.71 1.68 1.77 1.71 1.67 1.80 1.84 1.82 1.87 1.88 1.86 1.85 1.99 2.20 2.41 2.38 2.54 2.66 2.72 2.71 2.62 2.50 2.55 2.70 2.64 2.76 2.91 3.13 3.34
0.40 0.38 0.35 0.41 0.41 0.41 0.53 0.82 1.13 1.48 1.64 1.89 2.15 2.16 1.87 1.67 1.61 1.50 1.51 1.68 1.86 1.89 1.85 1.84 1.81 1.78 1.88 2.15 2.33 2.45 2.69 2.82 2.74 2.66 2.60 2.48 2.59 2.69 2.67 2.73 2.74 2.80 3.07
0.43 0.42 0.38 0.46 0.44 0.42 0.45 0.58 0.73 1.06 1.38 1.71 1.99 1.97 1.72 1.52 1.49 1.50 1.54 1.67 1.80 1.81 1.77 1.79 1.86 1.98 2.10 2.30 2.43 2.53 2.71 2.67 2.57 2.59 2.51 2.40 2.46 2.42 2.49 2.53 2.51 2.50 2.61
0.54 0.50 0.47 0.45 0.44 0.44 0.43 0.52 0.60 0.70 0.90 1.29 1.55 1.57 1.42 1.36 1.38 1.45 1.47 1.46 1.50 1.56 1.63 1.83 2.07 2.23 2.36 2.44 2.49 2.49 2.47 2.46 2.37 2.28 2.20 2.21 2.31 2.37 2.37 2.30 2.29 2.35 2.49
0.55 0.52 0.51 0.55 0.56 0.61 0.60 0.60 0.61 0.65 0.81 1.19 1.39 1.36 1.31 1.31 1.28 1.29 1.37 1.43 1.50 1.55 1.77 1.94 2.05 2.09 2.15 2.23 2.34 2.34 2.28 2.24 2.15 2.04 1.86 1.89 2.18 2.31 2.28 2.12 2.19 2.27 2.38
0.54 0.52 0.46 0.55 0.62 0.67 0.68 0.66 0.67 0.71 0.83 1.08 1.29 1.28 1.25 1.23 1.17 1.22 1.31 1.47 1.58 1.74 1.92 1.93 1.91 1.88 1.64 1.74 1.86 1.89 1.91 1.91 1.88 1.78 1.71 1.73 1.82 1.84 1.89 1.89 1.89 1.94 2.02
0.53 0.53 0.56 0.65 0.84 0.76 0.76 0.81 0.75 0.76 0.88 1.09 1.25 1.31 1.28 1.30 1.28 1.25 1.41 1.61 1.78 1.93 2.04 2.00 1.94 1.83 1.75 1.66 1.54 1.52 1.56 1.69 1.72 1.74 1.79 1.57 1.43 1.55 1.58 1.71 1.70 1.63 1.70
0.62 0.69 0.67 0.74 0.82 0.80 0.83 0.86 0.86 0.86 0.96 1.14 1.34 1.41 1.36 1.40 1.49 1.49 1.58 1.81 2.03 2.17 2.19 2.14 2.04 1.97 1.91 1.81 1.60 1.54 1.50 1.62 1.66 1.65 1.68 1.64 1.55 1.52 1.62 1.69 1.64 1.51 1.46
0.72 0.78 0.86 0.89 0.96 0.97 0.92 0.93 1.03 1.05 1.13 1.21 1.38 1.50 1.53 1.60 1.62 1.66 1.84 2.07 2.25 2.29 2.28 2.31 2.21 2.14 2.17 2.01 1.65 1.49 1.44 1.60 1.64 1.64 1.59 1.55 1.51 1.55 1.43 1.41 1.44 1.43 1.40
0.88 0.86 0.93 0.97 1.00 1.04 1.09 1.12 1.20 1.32 1.44 1.53 1.63 1.82 1.99 2.15 2.21 2.24 2.29 2.34 2.43 2.39 2.40 2.34 2.31 2.21 2.18 2.07 1.58 1.34 1.33 1.52 1.57 1.63 1.60 1.50 1.37 1.34 1.22 1.22 1.37 1.35 1.33
0.85 0.91 0.91 1.00 1.09 1.10 1.22 1.39 1.47 1.58 1.71 1.86 1.94 2.14 2.42 2.59 2.59 2.59 2.52 2.43 2.44 2.47 2.43 2.31 2.26 2.20 2.11 2.02 1.60 1.41 1.42 1.57 1.66 1.65 1.61 1.55 1.41 1.21 1.16 1.13 1.19 1.25 1.21
0.77 0.88 0.93 0.98 1.16 1.39 1.58 1.82 1.93 1.91 2.01 2.15 2.29 2.47 2.68 2.62 2.56 2.73 2.65 2.61 2.67 2.65 2.49 2.36 2.25 2.25 2.19 2.00 1.69 1.46 1.50 1.64 1.75 1.81 1.77 1.68 1.46 1.21 1.12 1.05 1.04 1.02 0.94
0.74 0.84 0.92 1.04 1.21 1.48 1.85 2.11 2.16 2.26 2.30 2.37 2.51 2.58 2.63 2.78 2.92 2.98 2.88 2.78 2.73 2.63 2.42 2.29 2.15 2.07 2.12 2.15 1.75 1.47 1.52 1.59 1.63 1.79 1.83 1.56 1.32 1.16 1.00 0.98 0.97 0.88 0.82
0.79 0.83 0.92 1.09 1.35 1.58 1.89 2.05 2.11 2.15 2.18 2.23 2.23 2.31 2.45 2.58 2.68 2.91 2.96 2.85 2.69 2.59 2.50 2.38 2.21 2.09 2.11 2.12 1.79 1.48 1.45 1.51 1.49 1.57 1.64 1.49 1.31 1.16 1.03 0.98 0.93 0.88 0.91
0.82 0.90 0.99 1.11 1.24 1.45 1.65 1.76 1.92 2.00 2.16 2.21 2.14 2.10 2.13 2.27 2.38 2.48 2.54 2.50 2.47 2.28 2.16 2.05 1.96 1.93 1.96 1.94 1.68 1.48 1.46 1.55 1.60 1.56 1.58 1.56 1.42 1.29 1.18 1.15 1.18 1.19 1.14
0.81 0.91 1.01 1.14 1.24 1.41 1.61 1.71 1.84 1.92 2.00 2.03 1.96 1.96 1.95 2.04 2.09 2.10 2.03 1.85 1.77 1.61 1.45 1.38 1.31 1.32 1.38 1.51 1.36 1.23 1.30 1.44 1.49 1.38 1.39 1.50 1.50 1.42 1.34 1.27 1.27 1.26 1.20

GEFSMW_prec_meanprecacc_246.txt.gz
Total_Precipitation_Accumulation
1.92 2.30 2.66 3.13 3.58 4.07 4.79 5.41 5.83 5.83 5.67 5.35 4.98 4.72 4.22 3.86 3.59 3.30 3.09 2.88 2.61 2.53 2.89 2.64 2.90 2.78 2.68 2.52 2.46 2.58 2.64 2.38 2.60 2.81 2.35 1.85 1.57 1.51 1.42 1.42 1.49 1.43 1.51
1.87 2.23 2.73 3.03 3.39 3.89 4.44 4.85 4.85 4.53 4.42 4.46 4.37 4.13 4.11 3.91 3.78 3.50 3.29 2.90 2.73 2.63 2.49 2.67 2.48 2.44 2.52 2.33 2.23 2.43 2.43 2.18 2.51 2.65 2.64 2.06 1.81 1.56 1.15 1.28 1.42 1.51 1.70
1.51 1.85 2.40 2.71 2.91 3.39 3.70 3.73 3.62 3.45 3.51 3.59 3.59 3.67 3.85 3.84 3.78 3.62 3.35 3.05 2.91 2.81 2.69 2.57 2.38 2.31 2.14 2.21 2.26 2.32 2.37 2.30 2.29 2.35 2.59 2.22 1.84 1.56 1.20 1.20 1.43 1.74 1.95
1.27 1.57 1.90 2.13 2.40 2.64 2.74 2.73 2.81 2.83 2.87 2.95 3.00 2.89 2.89 3.06 3.27 3.48 3.53 3.44 3.19 2.95 2.68 2.51 2.29 2.12 1.99 2.19 1.91 2.00 2.30 2.42 2.16 2.17 2.16 2.08 2.16 2.06 1.67 1.34 1.27 1.54 1.74
1.29 1.50 1.60 1.77 1.86 1.88 1.98 2.05 2.34 2.66 2.79 2.88 2.99 2.89 2.59 2.56 2.60 2.73 2.89 2.89 2.85 2.69 2.39 2.29 2.21 2.07 1.95 1.95 1.91 2.18 2.19 2.18 2.13 2.20 2.18 2.27 2.40 2.23 2.06 1.72 1.62 1.73 1.73
1.00 1.23 1.49 1.57 1.52 1.48 1.63 1.84 2.14 2.56 2.80 2.87 2.81 2.76 2.65 2.61 2.53 2.53 2.57 2.44 2.41 2.34 2.18 2.10 2.16 2.02 1.90 1.90 1.90 2.03 2.10 2.21 2.30 2.32 2.31 2.36 2.34 2.34 2.53 2.21 2.00 1.95 1.71
0.76 0.78 0.96 1.22 1.18 1.13 1.29 1.56 1.76 2.09 2.33 2.43 2.40 2.31 2.42 2.51 2.39 2.25 2.18 2.10 1.98 1.90 1.90 1.97 2.08 1.92 1.86 1.93 2.07 2.07 2.04 2.19 2.29 2.24 2.32 2.40 2.34 2.46 2.63 2.56 2.24 2.04 1.82
0.57 0.55 0.63 0.79 1.01 1.00 1.05 1.17 1.42 1.67 1.88 1.93 2.03 2.13 2.28 2.37 2.32 2.46 2.26 2.10 1.82 1.68 1.74 1.94 2.00 1.93 1.86 1.84 2.19 2.18 2.19 2.28 2.27 2.16 2.45 2.50 2.30 2.51 2.72 2.82 2.83 2.51 2.34
0.47 0.47 0.55 0.75 0.78 0.75 0.81 0.92 1.16 1.35 1.51 1.63 1.78 1.86 1.84 1.87 2.01 2.19 2.19 2.03 1.94 1.75 1.82 1.89 2.07 2.15 2.22 2.24 2.38 2.31 2.31 2.49 2.46 2.41 2.57 2.57 2.44 2.48 2.61 2.85 3.05 3.05 2.85
0.47 0.45 0.47 0.56 0.57 0.56 0.70 0.93 1.11 1.15 1.36 1.65 1.81 1.73 1.75 1.71 1.86 1.88 1.90 1.94 1.87 1.86 1.90 1.91 1.98 2.12 2.24 2.29 2.43 2.42 2.48 2.66 2.67 2.72 2.80 2.68 2.45 2.56 2.62 2.76 3.03 3.27 3.30
0.48 0.48 0.46 0.47 0.58 0.52 0.62 0.79 0.92 1.06 1.34 1.64 1.86 1.88 1.76 1.76 1.84 1.75 1.71 1.83 1.86 1.85 1.89 1.90 1.87 1.87 2.02 2.23 2.42 2.40 2.56 2.69 2.74 2.73 2.64 2.52 2.56 2.72 2.66 2.79 2.94 3.15 3.36
0.40 0.38 0.35 0.41 0.42 0.42 0.54 0.82 1.14 1.48 1.64 1.90 2.17 2.21 1.96 1.74 1.65 1.53 1.53 1.70 1.89 1.90 1.87 1.85 1.83 1.80 1.90 2.16 2.34 2.46 2.71 2.83 2.75 2.66 2.61 2.49 2.60 2.71 2.68 2.75 2.76 2.82 3.10
0.43 0.42 0.38 0.47 0.44 0.43 0.45 0.58 0.73 1.07 1.38 1.72 2.01 2.01 1.76 1.55 1.51 1.51 1.56 1.69 1.83 1.83 1.79 1.81 1.87 2.00 2.12 2.32 2.44 2.55 2.72 2.68 2.58 2.60 2.52 2.41 2.48 2.44 2.50 2.54 2.53 2.53 2.63
0.54 0.50 0.47 0.46 0.45 0.45 0.43 0.53 0.61 0.70 0.91 1.31 1.59 1.59 1.44 1.39 1.40 1.46 1.49 1.49 1.53 1.59 1.64 1.85 2.08 2.24 2.37 2.46 2.51 2.51 2.49 2.48 2.40 2.30 2.22 2.22 2.32 2.39 2.38 2.31 2.31 2.37 2.52
0.56 0.53 0.52 0.56 0.56 0.61 0.61 0.60 0.62 0.66 0.84 1.23 1.42 1.38 1.34 1.35 1.31 1.31 1.40 1.47 1.52 1.57 1.78 1.95 2.05 2.10 2.16 2.24 2.35 2.35 2.30 2.27 2.19 2.06 1.87 1.90 2.19 2.31 2.29 2.13 2.21 2.29 2.40
0.55 0.52 0.46 0.55 0.62 0.67 0.69 0.68 0.70 0.73 0.86 1.13 1.35 1.34 1.31 1.28 1.21 1.26 1.34 1.49 1.60 1.76 1.93 1.95 1.93 1.89 1.64 1.74 1.86 1.92 1.96 1.98 1.94 1.81 1.73 1.74 1.83 1.85 1.90 1.91 1.92 1.96 2.04
0.53 0.53 0.56 0.66 0.84 0.76 0.77 0.83 0.78 0.79 0.92 1.15 1.32 1.38 1.33 1.33 1.30 1.27 1.42 1.62 1.79 1.95 2.07 2.04 1.97 1.85 1.76 1.66 1.55 1.55 1.63 1.76 1.77 1.77 1.82 1.61 1.46 1.57 1.60 1.72 1.71 1.64 1.70
0.62 0.70 0.67 0.74 0.82 0.80 0.83 0.87 0.88 0.90 1.01 1.19 1.38 1.44 1.38 1.43 1.51 1.50 1.59 1.83 2.05 2.19 2.22 2.18 2.08 1.99 1.92 1.83 1.64 1.62 1.56 1.67 1.70 1.70 1.72 1.66 1.56 1.54 1.64 1.71 1.66 1.52 1.46
0.72 0.79 0.86 0.89 0.96 0.97 0.92 0.94 1.06 1.08 1.16 1.24 1.41 1.51 1.55 1.62 1.64 1.68 1.86 2.09 2.27 2.31 2.30 2.33 2.23 2.15 2.18 2.02 1.67 1.51 1.47 1.63 1.67 1.67 1.60 1.56 1.52 1.56 1.44 1.42 1.45 1.44 1.41
0.89 0.87 0.93 0.97 1.01 1.04 1.09 1.12 1.22 1.34 1.46 1.55 1.64 1.83 2.02 2.19 2.24 2.26 2.31 2.35 2.45 2.41 2.41 2.35 2.32 2.22 2.18 2.08 1.58 1.34 1.33 1.52 1.58 1.65 1.61 1.50 1.37 1.35 1.23 1.23 1.38 1.36 1.34
0.85 0.92 0.91 1.00 1.09 1.11 1.22 1.40 1.48 1.59 1.73 1.88 1.96 2.15 2.45 2.62 2.62 2.61 2.53 2.45 2.47 2.50 2.48 2.36 2.28 2.22 2.13 2.02 1.61 1.41 1.42 1.58 1.67 1.65 1.61 1.55 1.41 1.22 1.16 1.13 1.19 1.25 1.21
0.78 0.89 0.93 0.98 1.16 1.39 1.58 1.83 1.94 1.92 2.03 2.17 2.31 2.49 2.70 2.64 2.58 2.76 2.68 2.64 2.70 2.67 2.53 2.39 2.27 2.27 2.21 2.02 1.71 1.47 1.51 1.65 1.76 1.83 1.78 1.69 1.46 1.22 1.12 1.05 1.05 1.02 0.95
0.75 0.84 0.92 1.04 1.21 1.48 1.86 2.11 2.17 2.27 2.31 2.39 2.53 2.61 2.67 2.81 2.95 3.02 2.92 2.81 2.76 2.67 2.46 2.32 2.18 2.10 2.15 2.17 1.78 1.50 1.53 1.61 1.65 1.82 1.85 1.59 1.34 1.17 1.01 0.99 0.98 0.88 0.82
0.80 0.84 0.93 1.10 1.35 1.58 1.89 2.06 2.12 2.16 2.20 2.24 2.25 2.34 2.48 2.61 2.71 2.95 3.01 2.91 2.76 2.65 2.55 2.43 2.25 2.13 2.15 2.15 1.82 1.51 1.48 1.55 1.53 1.60 1.67 1.52 1.33 1.18 1.05 1.00 0.95 0.89 0.91
0.83 0.90 0.99 1.11 1.25 1.45 1.66 1.77 1.92 2.01 2.16 2.21 2.15 2.11 2.14 2.28 2.40 2.52 2.61 2.57 2.54 2.36 2.24 2.11 2.01 1.97 1.99 1.97 1.72 1.52 1.49 1.59 1.63 1.59 1.60 1.59 1.45 1.32 1.21 1.17 1.20 1.21 1.16
0.82 0.91 1.02 1.15 1.25 1.41 1.62 1.71 1.85 1.93 2.01 2.04 1.97 1.97 1.96 2.04 2.10 2.11 2.05 1.88 1.79 1.64 1.49 1.42 1.36 1.36 1.42 1.55 1.39 1.27 1.33 1.47 1.53 1.42 1.41 1.52 1.52 1.45 1.37 1.30 1.30 1.28 1.22

GEFSMW_prec_meanprecacc_252.txt.gz
Total_Precipitation_Accumulation
1.94 2.32 2.67 3.14 3.58 4.08 4.80 5.43 5.86 5.87 5.72 5.40 5.05 4.79 4.28 3.92 3.64 3.34 3.13 2.91 2.65 2.58 2.95 2.72 3.00 2.86 2.77 2.61 2.56 2.69 2.73 2.46 2.66 2.91 2.44 1.91 1.63 1.56 1.46 1.47 1.55 1.51 1.60
1.89 2.25 2.76 3.04 3.40 3.91 4.46 4.87 4.88 4.56 4.46 4.50 4.42 4.18 4.15 3.94 3.82 3.54 3.35 2.94 2.78 2.69 2.55 2.73 2.55 2.52 2.61 2.42 2.32 2.53 2.54 2.27 2.58 2.75 2.76 2.16 1.91 1.63 1.19 1.32 1.46 1.58 1.80
1.51 1.86 2.42 2.73 2.93 3.40 3.72 3.74 3.64 3.48 3.54 3.63 3.62 3.71 3.90 3.89 3.83 3.68 3.40 3.09 2.94 2.86 2.74 2.63 2.44 2.38 2.23 2.31 2.34 2.39 2.45 2.38 2.36 2.45 2.71 2.36 1.96 1.64 1.27 1.24 1.47 1.80 2.02
1.27 1.57 1.90 2.13 2.40 2.65 2.75 2.74 2.82 2.85 2.89 2.97 3.03 2.94 2.94 3.13 3.33 3.53 3.56 3.47 3.21 2.98 2.72 2.57 2.35 2.19 2.06 2.27 1.99 2.09 2.39 2.52 2.26 2.28 2.27 2.19 2.28 2.15 1.74 1.41 1.33 1.61 1.82
1.29 1.50 1.60 1.77 1.87 1.89 1.98 2.05 2.34 2.68 2.81 2.91 3.03 2.94 2.63 2.60 2.64 2.77 2.93 2.92 2.89 2.72 2.43 2.35 2.28 2.12 1.99 2.00 1.98 2.25 2.28 2.28 2.23 2.31 2.28 2.37 2.51 2.33 2.14 1.80 1.70 1.84 1.81
1.00 1.23 1.49 1.58 1.53 1.49 1.64 1.84 2.15 2.58 2.83 2.89 2.84 2.80 2.70 2.66 2.57 2.56 2.60 2.47 2.44 2.36 2.20 2.12 2.20 2.05 1.94 1.95 1.95 2.08 2.16 2.30 2.40 2.41 2.39 2.44 2.42 2.42 2.61 2.28 2.06 2.03 1.77
0.76 0.78 0.97 1.22 1.19 1.15 1.30 1.57 1.77 2.11 2.36 2.46 2.43 2.35 2.46 2.56 2.43 2.28 2.21 2.13 2.02 1.93 1.91 1.99 2.11 1.95 1.89 1.96 2.12 2.13 2.10 2.25 2.36 2.30 2.38 2.46 2.41 2.52 2.70 2.62 2.29 2.09 1.85
0.57 0.56 0.63 0.80 1.02 1.01 1.06 1.18 1.43 1.69 1.90 1.97 2.06 2.17 2.32 2.40 2.35 2.50 2.29 2.12 1.83 1.69 1.75 1.96 2.03 1.96 1.89 1.89 2.25 2.23 2.23 2.33 2.31 2.20 2.50 2.56 2.36 2.56 2.77 2.86 2.86 2.56 2.38
0.48 0.49 0.56 0.76 0.79 0.77 0.81 0.92 1.17 1.36 1.52 1.66 1.82 1.89 1.86 1.89 2.04 2.22 2.21 2.04 1.96 1.77 1.84 1.91 2.10 2.19 2.26 2.30 2.44 2.36 2.35 2.54 2.51 2.46 2.61 2.62 2.49 2.51 2.63 2.87 3.07 3.09 2.89
0.49 0.48 0.49 0.57 0.58 0.58 0.70 0.94 1.11 1.15 1.37 1.66 1.84 1.75 1.77 1.73 1.88 1.92 1.93 1.97 1.91 1.89 1.93 1.94 2.02 2.15 2.27 2.33 2.49 2.48 2.52 2.69 2.71 2.76 2.84 2.72 2.48 2.58 2.63 2.78 3.06 3.31 3.34
0.48 0.49 0.49 0.49 0.58 0.52 0.62 0.79 0.93 1.07 1.36 1.66 1.89 1.91 1.80 1.81 1.87 1.78 1.74 1.86 1.89 1.87 1.92 1.93 1.90 1.89 2.04 2.25 2.46 2.43 2.59 2.72 2.76 2.74 2.66 2.55 2.60 2.74 2.68 2.82 2.98 3.18 3.40
0.40 0.39 0.37 0.42 0.42 0.42 0.54 0.84 1.15 1.49 1.66 1.92 2.20 2.24 2.01 1.81 1.70 1.57 1.56 1.73 1.90 1.92 1.89 1.87 1.86 1.82 1.92 2.18 2.36 2.47 2.72 2.86 2.77 2.69 2.63 2.51 2.63 2.74 2.72 2.79 2.79 2.85 3.13
0.43 0.42 0.39 0.47 0.45 0.43 0.46 0.60 0.75 1.09 1.41 1.74 2.05 2.06 1.82 1.60 1.55 1.54 1.58 1.71 1.84 1.85 1.80 1.83 1.91 2.03 2.14 2.32 2.45 2.56 2.74 2.71 2.61 2.63 2.55 2.44 2.51 2.47 2.54 2.57 2.57 2.57 2.66
0.56 0.52 0.49 0.47 0.47 0.46 0.45 0.54 0.62 0.71 0.92 1.33 1.61 1.64 1.49 1.42 1.43 1.48 1.51 1.51 1.55 1.60 1.66 1.87 2.11 2.26 2.38 2.49 2.52 2.53 2.50 2.50 2.42 2.32 2.25 2.27 2.38 2.43 2.42 2.34 2.34 2.41 2.55
0.57 0.54 0.54 0.58 0.59 0.65 0.65 0.64 0.65 0.68 0.86 1.25 1.45 1.43 1.38 1.38 1.33 1.33 1.42 1.48 1.54 1.58 1.80 1.97 2.08 2.12 2.18 2.25 2.37 2.37 2.31 2.30 2.22 2.12 1.94 1.97 2.26 2.37 2.32 2.14 2.25 2.33 2.42
0.55 0.53 0.47 0.57 0.66 0.71 0.73 0.72 0.75 0.78 0.91 1.18 1.40 1.38 1.35 1.31 1.24 1.28 1.36 1.51 1.62 1.78 1.96 1.97 1.94 1.90 1.65 1.74 1.87 1.92 1.98 2.02 2.00 1.89 1.81 1.81 1.89 1.91 1.93 1.92 1.94 1.99 2.07
0.53 0.53 0.57 0.66 0.85 0.79 0.80 0.85 0.81 0.85 0.98 1.23 1.41 1.43 1.37 1.36 1.34 1.30 1.44 1.64 1.82 1.98 2.10 2.06 1.99 1.86 1.78 1.67 1.56 1.56 1.64 1.78 1.81 1.83 1.88 1.64 1.47 1.59 1.62 1.74 1.72 1.65 1.72
0.63 0.70 0.67 0.74 0.82 0.81 0.84 0.89 0.90 0.93 1.05 1.26 1.48 1.53 1.46 1.48 1.55 1.54 1.62 1.86 2.08 2.22 2.25 2.22 2.11 2.01 1.93 1.84 1.65 1.63 1.57 1.67 1.71 1.71 1.73 1.67 1.56 1.54 1.65 1.72 1.67 1.52 1.47
0.74 0.79 0.87 0.89 0.96 0.97 0.94 0.97 1.09 1.11 1.19 1.27 1.45 1.57 1.62 1.69 1.70 1.73 1.91 2.13 2.30 2.33 2.32 2.36 2.26 2.17 2.19 2.04 1.69 1.53 1.48 1.63 1.67 1.67 1.61 1.56 1.52 1.56 1.44 1.42 1.45 1.44 1.41
0.90 0.89 0.94 0.98 1.01 1.05 1.11 1.14 1.25 1.38 1.49 1.58 1.68 1.88 2.07 2.24 2.30 2.32 2.37 2.41 2.49 2.45 2.45 2.38 2.34 2.24 2.21 2.13 1.62 1.37 1.34 1.53 1.59 1.65 1.61 1.51 1.38 1.35 1.23 1.23 1.38 1.36 1.35
0.86 0.93 0.93 1.01 1.10 1.11 1.23 1.42 1.51 1.62 1.77 1.92 2.00 2.21 2.50 2.68 2.67 2.66 2.58 2.50 2.53 2.55 2.53 2.40 2.31 2.25 2.16 2.06 1.63 1.43 1.43 1.59 1.68 1.66 1.62 1.56 1.42 1.22 1.17 1.13 1.20 1.26 1.23
0.78 0.89 0.94 1.00 1.17 1.41 1.60 1.84 1.95 1.95 2.05 2.21 2.38 2.58 2.78 2.71 2.65 2.82 2.73 2.70 2.76 2.72 2.58 2.44 2.30 2.30 2.24 2.04 1.72 1.49 1.53 1.67 1.78 1.84 1.80 1.70 1.49 1.24 1.13 1.05 1.05 1.03 0.96
0.76 0.85 0.93 1.05 1.23 1.50 1.88 2.13 2.19 2.31 2.35 2.43 2.58 2.68 2.74 2.88 3.02 3.08 2.98 2.87 2.83 2.74 2.53 2.39 2.23 2.13 2.19 2.20 1.81 1.52 1.56 1.63 1.66 1.84 1.88 1.62 1.37 1.20 1.03 1.00 1.00 0.90 0.83
0.81 0.86 0.94 1.12 1.37 1.61 1.93 2.08 2.15 2.20 2.24 2.29 2.30 2.39 2.54 2.66 2.76 3.01 3.05 2.95 2.80 2.69 2.59 2.48 2.30 2.18 2.19 2.18 1.85 1.53 1.50 1.57 1.55 1.62 1.70 1.56 1.37 1.21 1.07 1.01 0.97 0.91 0.93
0.85 0.93 1.02 1.14 1.27 1.48 1.68 1.78 1.95 2.04 2.20 2.25 2.19 2.15 2.18 2.32 2.44 2.56 2.65 2.60 2.57 2.39 2.27 2.14 2.05 2.00 2.02 2.01 1.76 1.56 1.52 1.62 1.67 1.64 1.65 1.64 1.49 1.35 1.23 1.20 1.22 1.24 1.19
0.83 0.94 1.05 1.18 1.28 1.44 1.64 1.73 1.87 1.95 2.03 2.05 1.99 1.99 1.99 2.07 2.13 2.14 2.07 1.90 1.81 1.66 1.51 1.44 1.38 1.39 1.45 1.58 1.43 1.30 1.37 1.52 1.58 1.48 1.47 1.57 1.57 1.48 1.39 1.33 1.32 1.31 1.25

GEFSMW_prec_meanprecacc_258.txt.gz
Total_Precipitation_Accumulation
1.94 2.32 2.68 3.14 3.59 4.08 4.81 5.44 5.88 5.88 5.73 5.42 5.07 4.81 4.30 3.95 3.66 3.37 3.15 2.93 2.67 2.60 2.98 2.76 3.07 2.89 2.81 2.64 2.60 2.73 2.77 2.50 2.71 2.97 2.51 1.99 1.70 1.60 1.50 1.51 1.59 1.55 1.64
1.90 2.26 2.77 3.06 3.42 3.93 4.47 4.88 4.89 4.57 4.47 4.52 4.43 4.19 4.17 3.97 3.84 3.58 3.38 2.96 2.80 2.71 2.57 2.76 2.58 2.55 2.64 2.44 2.35 2.58 2.58 2.31 2.62 2.80 2.81 2.22 1.97 1.68 1.24 1.38 1.51 1.62 1.85
1.52 1.86 2.43 2.75 2.94 3.41 3.73 3.75 3.65 3.50 3.56 3.64 3.63 3.72 3.93 3.92 3.86 3.71 3.44 3.12 2.96 2.87 2.76 2.66 2.46 2.40 2.25 2.35 2.39 2.45 2.49 2.43 2.40 2.48 2.75 2.40 2.00 1.67 1.31 1.29 1.52 1.84 2.05
1.28 1.58 1.91 2.15 2.41 2.67 2.77 2.74 2.83 2.87 2.91 2.98 3.04 2.96 2.96 3.16 3.36 3.55 3.60 3.51 3.24 3.01 2.75 2.60 2.38 2.21 2.08 2.31 2.03 2.13 2.41 2.55 2.29 2.31 2.29 2.22 2.30 2.17 1.77 1.43 1.35 1.63 1.84
1.31 1.52 1.63 1.79 1.88 1.93 2.02 2.06 2.35 2.69 2.82 2.92 3.04 2.96 2.67 2.64 2.69 2.81 2.97 2.97 2.93 2.76 2.45 2.38 2.33 2.15 2.00 2.02 2.00 2.28 2.30 2.30 2.26 2.34 2.31 2.39 2.52 2.34 2.15 1.81 1.70 1.85 1.83
1.01 1.24 1.53 1.62 1.57 1.53 1.65 1.85 2.15 2.59 2.83 2.92 2.87 2.84 2.75 2.71 2.62 2.60 2.65 2.51 2.47 2.39 2.21 2.15 2.23 2.08 1.97 1.97 1.96 2.09 2.18 2.32 2.42 2.44 2.41 2.46 2.44 2.44 2.64 2.30 2.07 2.04 1.78
0.77 0.79 0.99 1.24 1.22 1.16 1.31 1.57 1.78 2.12 2.37 2.49 2.47 2.41 2.50 2.58 2.46 2.31 2.23 2.16 2.06 1.98 1.94 2.02 2.15 1.99 1.94 1.99 2.14 2.14 2.12 2.27 2.38 2.33 2.42 2.49 2.43 2.54 2.72 2.64 2.30 2.09 1.87
0.58 0.57 0.64 0.81 1.03 1.02 1.07 1.18 1.44 1.70 1.91 1.98 2.10 2.22 2.36 2.44 2.38 2.52 2.32 2.16 1.88 1.73 1.78 1.99 2.07 2.01 1.93 1.91 2.26 2.24 2.24 2.34 2.33 2.23 2.53 2.59 2.39 2.59 2.79 2.88 2.88 2.58 2.40
0.49 0.49 0.57 0.77 0.80 0.78 0.82 0.93 1.18 1.38 1.54 1.68 1.84 1.93 1.90 1.94 2.10 2.26 2.24 2.08 2.00 1.80 1.88 1.94 2.13 2.22 2.29 2.33 2.46 2.38 2.37 2.55 2.52 2.47 2.63 2.63 2.50 2.53 2.66 2.88 3.08 3.11 2.91
0.52 0.49 0.50 0.58 0.61 0.59 0.71 0.95 1.15 1.19 1.40 1.69 1.88 1.79 1.81 1.80 1.97 1.99 1.98 2.00 1.94 1.92 1.96 1.96 2.04 2.18 2.30 2.35 2.51 2.50 2.54 2.72 2.72 2.77 2.84 2.73 2.50 2.60 2.65 2.80 3.07 3.33 3.37
0.54 0.52 0.52 0.53 0.63 0.55 0.63 0.81 0.95 1.10 1.39 1.69 1.92 1.95 1.84 1.86 1.94 1.83 1.78 1.89 1.92 1.89 1.93 1.94 1.92 1.92 2.07 2.27 2.48 2.44 2.61 2.73 2.77 2.75 2.66 2.56 2.61 2.76 2.70 2.84 3.00 3.21 3.43
0.46 0.43 0.41 0.48 0.45 0.44 0.56 0.85 1.17 1.52 1.70 1.96 2.24 2.29 2.06 1.86 1.74 1.60 1.59 1.74 1.92 1.94 1.91 1.89 1.88 1.84 1.94 2.20 2.37 2.48 2.73 2.86 2.78 2.69 2.64 2.53 2.64 2.75 2.74 2.82 2.82 2.89 3.17
0.48 0.46 0.41 0.50 0.48 0.46 0.48 0.61 0.78 1.13 1.46 1.81 2.13 2.12 1.87 1.64 1.59 1.58 1.61 1.73 1.87 1.87 1.83 1.84 1.92 2.04 2.15 2.34 2.46 2.57 2.74 2.71 2.62 2.63 2.56 2.45 2.54 2.50 2.57 2.60 2.59 2.60 2.70
0.60 0.54 0.51 0.50 0.50 0.50 0.48 0.59 0.68 0.77 0.98 1.40 1.70 1.71 1.53 1.46 1.46 1.51 1.54 1.53 1.57 1.63 1.69 1.90 2.13 2.28 2.40 2.50 2.53 2.54 2.51 2.51 2.42 2.33 2.26 2.29 2.42 2.51 2.47 2.37 2.37 2.44 2.59
0.60 0.57 0.56 0.61 0.63 0.69 0.70 0.70 0.74 0.76 0.93 1.34 1.57 1.53 1.44 1.44 1.38 1.37 1.45 1.50 1.56 1.60 1.82 1.99 2.10 2.14 2.20 2.26 2.38 2.38 2.32 2.31 2.23 2.12 1.95 1.99 2.30 2.46 2.40 2.20 2.29 2.35 2.44
0.60 0.56 0.49 0.59 0.68 0.75 0.78 0.80 0.86 0.91 1.01 1.29 1.54 1.51 1.43 1.38 1.30 1.32 1.39 1.53 1.64 1.81 1.98 1.99 1.96 1.92 1.66 1.76 1.89 1.94 1.99 2.03 2.01 1.89 1.82 1.82 1.91 1.95 1.97 1.95 1.96 2.00 2.08
0.58 0.56 0.59 0.69 0.88 0.82 0.84 0.91 0.87 0.92 1.07 1.33 1.54 1.57 1.49 1.46 1.40 1.35 1.49 1.68 1.85 2.01 2.13 2.09 2.01 1.88 1.79 1.69 1.58 1.59 1.66 1.81 1.83 1.84 1.89 1.65 1.48 1.60 1.63 1.75 1.73 1.66 1.73
0.66 0.72 0.69 0.76 0.85 0.83 0.87 0.93 0.96 0.99 1.12 1.34 1.57 1.64 1.59 1.61 1.68 1.65 1.72 1.92 2.13 2.27 2.29 2.25 2.14 2.03 1.95 1.86 1.69 1.67 1.60 1.71 1.74 1.74 1.75 1.69 1.58 1.55 1.65 1.72 1.67 1.53 1.47
0.78 0.82 0.89 0.92 0.99 1.00 0.96 0.99 1.13 1.16 1.24 1.32 1.53 1.65 1.70 1.77 1.81 1.85 2.05 2.21 2.35 2.37 2.36 2.41 2.31 2.21 2.22 2.09 1.75 1.59 1.52 1.67 1.71 1.71 1.64 1.59 1.54 1.57 1.45 1.43 1.46 1.44 1.41
0.92 0.92 0.98 1.01 1.04 1.07 1.13 1.17 1.28 1.41 1.53 1.61 1.70 1.91 2.12 2.30 2.39 2.45 2.47 2.49 2.55 2.50 2.50 2.44 2.44 2.35 2.31 2.24 1.71 1.44 1.39 1.57 1.61 1.67 1.62 1.51 1.38 1.35 1.24 1.24 1.39 1.37 1.35
0.87 0.95 0.97 1.06 1.13 1.15 1.27 1.46 1.54 1.65 1.79 1.94 2.02 2.24 2.58 2.78 2.78 2.82 2.70 2.58 2.58 2.60 2.60 2.49 2.41 2.33 2.25 2.15 1.71 1.50 1.48 1.63 1.70 1.66 1.62 1.57 1.44 1.24 1.18 1.15 1.21 1.27 1.24
0.79 0.91 0.98 1.05 1.21 1.45 1.64 1.89 1.98 1.97 2.08 2.23 2.40 2.65 2.93 2.82 2.75 2.91 2.79 2.74 2.80 2.76 2.64 2.52 2.42 2.43 2.35 2.12 1.81 1.59 1.61 1.71 1.80 1.85 1.81 1.72 1.51 1.26 1.15 1.08 1.07 1.05 0.99
0.77 0.87 0.96 1.11 1.28 1.55 1.95 2.18 2.22 2.34 2.38 2.46 2.61 2.72 2.80 2.93 3.06 3.12 3.00 2.89 2.86 2.78 2.58 2.45 2.29 2.20 2.27 2.28 1.88 1.60 1.64 1.68 1.69 1.86 1.90 1.63 1.39 1.22 1.06 1.04 1.04 0.94 0.87
0.82 0.88 0.97 1.14 1.40 1.66 2.00 2.14 2.19 2.24 2.26 2.31 2.32 2.41 2.56 2.68 2.79 3.05 3.10 2.98 2.81 2.70 2.61 2.51 2.34 2.23 2.24 2.22 1.89 1.58 1.54 1.61 1.58 1.65 1.72 1.58 1.39 1.23 1.09 1.04 1.00 0.94 0.96
0.87 0.96 1.06 1.17 1.31 1.54 1.76 1.85 1.99 2.06 2.22 2.27 2.20 2.16 2.20 2.34 2.46 2.59 2.68 2.63 2.60 2.41 2.29 2.16 2.06 2.01 2.03 2.03 1.79 1.58 1.54 1.64 1.69 1.66 1.67 1.65 1.50 1.36 1.24 1.21 1.24 1.26 1.23
0.85 0.96 1.08 1.23 1.35 1.51 1.69 1.79 1.92 1.99 2.06 2.08 2.01 2.00 2.01 2.10 2.16 2.17 2.09 1.93 1.84 1.69 1.53 1.46 1.40 1.40 1.45 1.59 1.45 1.33 1.39 1.54 1.61 1.51 1.50 1.59 1.58 1.50 1.42 1.36 1.36 1.35 1.30

GEFSMW_prec_meanprecacc_264.txt.gz
Total_Precipitation_Accumulation
1.95 2.33 2.69 3.14 3.59 4.09 4.82 5.46 5.91 5.93 5.78 5.47 5.12 4.86 4.35 4.01 3.73 3.45 3.25 3.01 2.73 2.66 3.03 2.81 3.11 2.93 2.85 2.70 2.66 2.78 2.83 2.58 2.78 3.03 2.56 2.04 1.73 1.63 1.54 1.56 1.63 1.58 1.67
1.90 2.26 2.77 3.06 3.42 3.93 4.48 4.90 4.92 4.61 4.52 4.58 4.49 4.24 4.22 4.02 3.89 3.64 3.43 3.01 2.84 2.75 2.60 2.79 2.62 2.59 2.68 2.49 2.40 2.62 2.64 2.36 2.67 2.85 2.86 2.25 1.99 1.71 1.26 1.41 1.54 1.65 1.89
1.52 1.87 2.44 2.75 2.94 3.41 3.74 3.77 3.68 3.52 3.60 3.72 3.71 3.76 3.96 3.96 3.91 3.76 3.48 3.16 3.00 2.91 2.79 2.68 2.50 2.44 2.30 2.40 2.44 2.50 2.54 2.49 2.45 2.51 2.78 2.42 2.01 1.69 1.33 1.32 1.55 1.85 2.07
1.28 1.58 1.92 2.15 2.42 2.68 2.77 2.75 2.84 2.89 2.95 3.05 3.12 2.99 2.99 3.18 3.38 3.58 3.63 3.54 3.28 3.04 2.78 2.62 2.41 2.25 2.12 2.37 2.09 2.19 2.48 2.63 2.35 2.34 2.32 2.24 2.32 2.19 1.80 1.44 1.37 1.64 1.84
1.31 1.52 1.64 1.80 1.89 1.93 2.02 2.07 2.36 2.70 2.85 2.97 3.09 2.98 2.68 2.66 2.70 2.83 3.00 3.00 2.96 2.79 2.48 2.40 2.34 2.17 2.04 2.07 2.06 2.34 2.36 2.38 2.32 2.39 2.35 2.42 2.55 2.36 2.19 1.82 1.71 1.86 1.83
1.01 1.24 1.53 1.62 1.58 1.54 1.66 1.86 2.16 2.60 2.85 2.94 2.89 2.85 2.76 2.72 2.64 2.63 2.69 2.57 2.53 2.44 2.24 2.16 2.25 2.10 2.01 2.03 2.02 2.14 2.23 2.38 2.48 2.48 2.45 2.49 2.48 2.48 2.67 2.31 2.08 2.05 1.79
0.78 0.79 0.99 1.25 1.22 1.17 1.34 1.59 1.78 2.13 2.38 2.50 2.48 2.42 2.51 2.59 2.48 2.35 2.28 2.21 2.10 2.01 1.96 2.04 2.16 2.02 1.97 2.04 2.19 2.18 2.16 2.31 2.41 2.37 2.45 2.52 2.46 2.56 2.75 2.66 2.31 2.10 1.87
0.58 0.57 0.65 0.82 1.04 1.04 1.09 1.20 1.45 1.72 1.93 1.99 2.11 2.23 2.37 2.45 2.39 2.54 2.35 2.19 1.91 1.76 1.81 2.02 2.10 2.03 1.95 1.94 2.30 2.28 2.29 2.38 2.36 2.26 2.56 2.61 2.41 2.60 2.80 2.90 2.91 2.59 2.40
0.50 0.50 0.57 0.77 0.80 0.80 0.84 0.95 1.20 1.41 1.56 1.70 1.87 1.95 1.93 1.96 2.12 2.28 2.27 2.10 2.02 1.82 1.90 1.96 2.15 2.24 2.31 2.35 2.48 2.41 2.40 2.58 2.54 2.49 2.66 2.66 2.53 2.55 2.68 2.91 3.11 3.12 2.92
0.52 0.49 0.50 0.59 0.63 0.63 0.74 0.98 1.19 1.22 1.42 1.72 1.93 1.84 1.85 1.83 1.99 2.01 2.00 2.02 1.97 1.95 1.98 1.98 2.06 2.19 2.32 2.38 2.52 2.52 2.56 2.73 2.73 2.78 2.86 2.75 2.51 2.62 2.68 2.81 3.08 3.34 3.38
0.55 0.54 0.54 0.55 0.66 0.58 0.66 0.84 0.98 1.13 1.42 1.73 1.96 1.99 1.89 1.91 1.97 1.85 1.80 1.92 1.94 1.92 1.96 1.96 1.94 1.95 2.09 2.29 2.49 2.45 2.62 2.74 2.78 2.76 2.67 2.58 2.62 2.77 2.71 2.85 3.01 3.22 3.45
0.47 0.44 0.43 0.50 0.48 0.47 0.57 0.88 1.20 1.55 1.73 2.00 2.31 2.37 2.14 1.94 1.80 1.64 1.63 1.78 1.95 1.98 1.95 1.92 1.91 1.87 1.96 2.21 2.38 2.49 2.74 2.87 2.78 2.70 2.64 2.54 2.66 2.77 2.75 2.83 2.82 2.90 3.18
0.49 0.47 0.42 0.51 0.50 0.48 0.50 0.64 0.81 1.17 1.50 1.85 2.20 2.20 1.94 1.71 1.65 1.64 1.66 1.77 1.91 1.91 1.87 1.89 1.96 2.06 2.17 2.35 2.47 2.58 2.75 2.72 2.62 2.64 2.56 2.47 2.56 2.52 2.59 2.61 2.60 2.61 2.71
0.61 0.55 0.52 0.50 0.52 0.52 0.50 0.61 0.72 0.80 1.01 1.46 1.77 1.78 1.61 1.52 1.52 1.55 1.58 1.57 1.62 1.66 1.72 1.92 2.15 2.29 2.41 2.50 2.53 2.54 2.51 2.52 2.43 2.34 2.27 2.30 2.43 2.53 2.49 2.39 2.38 2.45 2.59
0.61 0.57 0.57 0.62 0.64 0.70 0.71 0.72 0.75 0.78 0.96 1.41 1.64 1.60 1.52 1.50 1.42 1.41 1.49 1.55 1.61 1.65 1.86 2.03 2.13 2.16 2.21 2.27 2.38 2.39 2.33 2.31 2.23 2.14 1.96 1.99 2.31 2.47 2.41 2.21 2.30 2.36 2.44
0.60 0.57 0.50 0.60 0.70 0.76 0.79 0.81 0.88 0.93 1.05 1.35 1.58 1.55 1.47 1.42 1.33 1.36 1.43 1.57 1.69 1.85 2.03 2.03 2.00 1.94 1.68 1.77 1.90 1.95 2.00 2.04 2.02 1.90 1.83 1.83 1.92 1.95 1.98 1.96 1.96 2.01 2.08
0.58 0.56 0.60 0.69 0.88 0.83 0.85 0.92 0.88 0.94 1.12 1.40 1.58 1.60 1.52 1.48 1.43 1.38 1.52 1.71 1.89 2.06 2.17 2.14 2.06 1.91 1.81 1.70 1.61 1.62 1.69 1.83 1.84 1.86 1.90 1.67 1.49 1.61 1.64 1.76 1.74 1.67 1.73
0.67 0.74 0.71 0.77 0.86 0.84 0.88 0.94 0.98 1.02 1.17 1.39 1.59 1.66 1.60 1.63 1.71 1.72 1.78 1.97 2.17 2.31 2.33 2.29 2.18 2.06 1.97 1.89 1.72 1.71 1.65 1.74 1.76 1.76 1.77 1.71 1.59 1.57 1.67 1.73 1.68 1.53 1.48
0.79 0.83 0.90 0.94 1.01 1.01 0.96 1.00 1.15 1.19 1.27 1.34 1.55 1.67 1.71 1.79 1.82 1.89 2.12 2.30 2.44 2.46 2.42 2.44 2.33 2.23 2.23 2.11 1.77 1.62 1.55 1.70 1.73 1.72 1.66 1.61 1.55 1.58 1.46 1.43 1.46 1.45 1.42
0.93 0.94 1.00 1.04 1.06 1.09 1.14 1.18 1.30 1.43 1.56 1.64 1.73 1.93 2.13 2.32 2.40 2.46 2.50 2.56 2.65 2.58 2.55 2.48 2.47 2.37 2.33 2.26 1.74 1.46 1.40 1.59 1.64 1.70 1.66 1.54 1.40 1.37 1.25 1.24 1.39 1.38 1.36
0.88 0.96 1.00 1.09 1.16 1.16 1.29 1.48 1.58 1.69 1.85 1.99 2.06 2.26 2.59 2.80 2.80 2.84 2.73 2.62 2.63 2.65 2.64 2.53 2.44 2.36 2.28 2.18 1.73 1.52 1.49 1.65 1.74 1.71 1.66 1.60 1.46 1.26 1.19 1.15 1.22 1.28 1.25
0.80 0.92 1.01 1.08 1.25 1.47 1.66 1.91 2.01 2.01 2.13 2.28 2.43 2.67 2.94 2.84 2.76 2.92 2.80 2.76 2.81 2.78 2.66 2.55 2.47 2.48 2.38 2.15 1.83 1.61 1.63 1.73 1.82 1.86 1.83 1.74 1.53 1.28 1.18 1.10 1.09 1.07 1.00
0.78 0.87 0.97 1.14 1.33 1.60 1.98 2.22 2.27 2.39 2.42 2.50 2.63 2.74 2.83 2.96 3.08 3.14 3.02 2.91 2.87 2.79 2.59 2.47 2.31 2.22 2.30 2.30 1.91 1.62 1.65 1.70 1.71 1.87 1.92 1.66 1.41 1.25 1.09 1.07 1.07 0.96 0.88
0.84 0.89 0.99 1.18 1.46 1.72 2.05 2.20 2.25 2.30 2.32 2.35 2.35 2.44 2.59 2.72 2.83 3.08 3.12 3.00 2.83 2.72 2.62 2.52 2.36 2.24 2.25 2.23 1.90 1.59 1.55 1.62 1.59 1.66 1.74 1.59 1.42 1.26 1.13 1.07 1.02 0.96 0.98
0.90 0.99 1.09 1.20 1.35 1.59 1.81 1.90 2.04 2.11 2.27 2.31 2.23 2.19 2.23 2.38 2.51 2.62 2.71 2.65 2.61 2.43 2.30 2.17 2.08 2.03 2.05 2.04 1.80 1.60 1.56 1.65 1.70 1.67 1.68 1.65 1.51 1.38 1.27 1.23 1.26 1.28 1.24
0.87 0.98 1.11 1.26 1.40 1.56 1.74 1.82 1.96 2.03 2.10 2.11 2.03 2.03 2.03 2.12 2.18 2.19 2.12 1.96 1.87 1.71 1.55 1.47 1.42 1.42 1.48 1.61 1.46 1.34 1.41 1.56 1.64 1.54 1.51 1.61 1.60 1.53 1.44 1.38 1.38 1.37 1.32